Time,TemperatureF,DewpointF,PressureIn,WindDirection,WindDirectionDegrees,WindSpeedMPH,WindSpeedGustMPH,Humidity,HourlyPrecipIn,Conditions,Clouds,dailyrainin,SoftwareType,DateUTC
2013-02-10 00:00:00,2.5,-3.6,30.37,NNE,30,0.0,0.0,75,0.00,,,0.03,Wunderground v.1.15,2013-02-10 05:00:00,
2013-02-10 00:06:00,2.1,-4.0,30.37,NNE,30,0.0,0.0,75,0.00,,,0.03,Wunderground v.1.15,2013-02-10 05:06:00,
2013-02-10 00:07:00,2.0,-4.1,30.37,NNE,30,0.0,0.0,75,0.00,,,0.03,Wunderground v.1.15,2013-02-10 05:07:00,
2013-02-10 00:09:00,1.9,-3.9,30.37,NNE,30,0.0,0.0,76,0.00,,,0.03,Wunderground v.1.15,2013-02-10 05:09:00,
2013-02-10 00:11:00,1.8,-4.0,30.37,NNE,30,0.0,0.0,76,0.00,,,0.03,Wunderground v.1.15,2013-02-10 05:11:00,
2013-02-10 00:12:00,1.7,-4.1,30.37,NNE,30,0.0,0.0,76,0.00,,,0.03,Wunderground v.1.15,2013-02-10 05:12:00,
2013-02-10 00:15:00,1.5,-4.3,30.37,NNE,30,0.0,0.0,76,0.00,,,0.03,Wunderground v.1.15,2013-02-10 05:15:00,
2013-02-10 00:17:00,1.4,-4.4,30.37,NNE,30,0.0,0.0,76,0.00,,,0.03,Wunderground v.1.15,2013-02-10 05:17:00,
2013-02-10 00:18:00,1.4,-4.1,30.37,NNE,30,0.0,0.0,77,0.00,,,0.03,Wunderground v.1.15,2013-02-10 05:18:00,
2013-02-10 00:19:00,1.4,-4.1,30.37,NNE,30,0.0,0.0,77,0.00,,,0.03,Wunderground v.1.15,2013-02-10 05:19:00,
2013-02-10 00:21:00,1.3,-4.2,30.37,NNE,30,0.0,0.0,77,0.00,,,0.03,Wunderground v.1.15,2013-02-10 05:21:00,
2013-02-10 00:25:00,1.1,-4.4,30.37,NNE,30,0.0,0.0,77,0.00,,,0.03,Wunderground v.1.15,2013-02-10 05:25:00,
2013-02-10 00:26:00,1.0,-4.5,30.37,NNE,30,0.0,0.0,77,0.00,,,0.03,Wunderground v.1.15,2013-02-10 05:26:00,
2013-02-10 00:29:00,0.9,-4.4,30.37,NNE,30,0.0,0.0,78,0.00,,,0.03,Wunderground v.1.15,2013-02-10 05:29:00,
2013-02-10 00:30:00,0.9,-4.4,30.37,NNE,30,0.0,0.0,78,0.00,,,0.03,Wunderground v.1.15,2013-02-10 05:30:00,
2013-02-10 00:31:00,0.9,-4.4,30.37,NNE,30,0.0,0.0,78,0.00,,,0.03,Wunderground v.1.15,2013-02-10 05:31:00,
2013-02-10 00:34:00,0.9,-4.4,30.37,NNE,30,0.0,0.0,78,0.00,,,0.03,Wunderground v.1.15,2013-02-10 05:34:00,
2013-02-10 00:35:00,0.8,-4.5,30.38,NNE,30,0.0,0.0,78,0.00,,,0.03,Wunderground v.1.15,2013-02-10 05:35:00,
2013-02-10 00:40:00,0.6,-4.6,30.38,NNE,30,0.0,0.0,78,0.00,,,0.03,Wunderground v.1.15,2013-02-10 05:40:00,
2013-02-10 00:42:00,0.4,-4.8,30.38,NNE,30,0.0,0.0,78,0.00,,,0.03,Wunderground v.1.15,2013-02-10 05:42:00,
2013-02-10 00:44:00,0.3,-4.9,30.38,NNE,30,0.0,0.0,78,0.00,,,0.03,Wunderground v.1.15,2013-02-10 05:44:00,
2013-02-10 00:45:00,0.2,-5.0,30.38,NNE,30,0.0,0.0,78,0.00,,,0.03,Wunderground v.1.15,2013-02-10 05:45:00,
2013-02-10 00:47:00,0.2,-5.0,30.38,NNE,30,0.0,0.0,78,0.00,,,0.03,Wunderground v.1.15,2013-02-10 05:47:00,
2013-02-10 00:50:00,0.2,-4.8,30.38,NNE,30,0.0,0.0,79,0.00,,,0.03,Wunderground v.1.15,2013-02-10 05:50:00,
2013-02-10 00:51:00,0.2,-4.8,30.38,NNE,30,0.0,0.0,79,0.00,,,0.03,Wunderground v.1.15,2013-02-10 05:51:00,
2013-02-10 00:54:00,0.1,-4.9,30.38,NNE,30,0.0,0.0,79,0.00,,,0.03,Wunderground v.1.15,2013-02-10 05:54:00,
2013-02-10 00:55:00,0.1,-4.9,30.38,NNE,30,0.0,0.0,79,0.00,,,0.03,Wunderground v.1.15,2013-02-10 05:55:00,
2013-02-10 00:57:00,0.1,-4.9,30.38,NNE,30,0.0,0.0,79,0.00,,,0.03,Wunderground v.1.15,2013-02-10 05:57:00,
2013-02-10 01:00:00,-0.1,-5.1,30.38,NNE,30,0.0,0.0,79,0.00,,,0.03,Wunderground v.1.15,2013-02-10 06:00:00,
2013-02-10 01:03:00,-0.2,-5.2,30.38,NNE,30,0.0,0.0,79,0.00,,,0.03,Wunderground v.1.15,2013-02-10 06:03:00,
2013-02-10 01:06:00,-0.3,-5.3,30.38,NNE,30,0.0,0.0,79,0.00,,,0.03,Wunderground v.1.15,2013-02-10 06:06:00,
2013-02-10 01:08:00,-0.4,-5.4,30.38,NNE,30,0.0,0.0,79,0.00,,,0.03,Wunderground v.1.15,2013-02-10 06:08:00,
2013-02-10 01:10:00,-0.4,-5.4,30.38,NNE,30,0.0,0.0,79,0.00,,,0.03,Wunderground v.1.15,2013-02-10 06:10:00,
2013-02-10 01:14:00,-0.5,-5.2,30.38,NNE,30,0.0,0.0,80,0.00,,,0.03,Wunderground v.1.15,2013-02-10 06:14:00,
2013-02-10 01:16:00,-0.6,-5.3,30.39,NNE,30,0.0,0.0,80,0.00,,,0.03,Wunderground v.1.15,2013-02-10 06:16:00,
2013-02-10 01:17:00,-0.6,-5.3,30.39,NNE,30,0.0,0.0,80,0.00,,,0.03,Wunderground v.1.15,2013-02-10 06:17:00,
2013-02-10 01:19:00,-0.6,-5.3,30.39,NNE,30,0.0,0.0,80,0.00,,,0.03,Wunderground v.1.15,2013-02-10 06:19:00,
2013-02-10 01:20:00,-0.7,-5.4,30.39,NNE,30,0.0,0.0,80,0.00,,,0.03,Wunderground v.1.15,2013-02-10 06:20:00,
2013-02-10 01:23:00,-0.8,-5.5,30.38,NNE,30,0.0,0.0,80,0.00,,,0.03,Wunderground v.1.15,2013-02-10 06:23:00,
2013-02-10 01:24:00,-0.8,-5.5,30.38,NNE,30,0.0,0.0,80,0.00,,,0.03,Wunderground v.1.15,2013-02-10 06:24:00,
2013-02-10 01:25:00,-0.8,-5.5,30.38,NNE,30,0.0,0.0,80,0.00,,,0.03,Wunderground v.1.15,2013-02-10 06:25:00,
2013-02-10 01:27:00,-0.9,-5.6,30.38,NNE,30,0.0,0.0,80,0.00,,,0.03,Wunderground v.1.15,2013-02-10 06:27:00,
2013-02-10 01:30:00,-0.9,-5.6,30.39,NNE,30,0.0,0.0,80,0.00,,,0.03,Wunderground v.1.15,2013-02-10 06:30:00,
2013-02-10 01:33:00,-1.0,-5.7,30.39,NNE,30,0.0,0.0,80,0.00,,,0.03,Wunderground v.1.15,2013-02-10 06:33:00,
2013-02-10 01:34:00,-0.9,-5.3,30.39,NNE,30,0.0,0.0,81,0.00,,,0.03,Wunderground v.1.15,2013-02-10 06:34:00,
2013-02-10 01:35:00,-0.9,-5.3,30.39,NNE,30,0.0,0.0,81,0.00,,,0.03,Wunderground v.1.15,2013-02-10 06:35:00,
2013-02-10 01:39:00,-0.9,-5.3,30.39,NNE,30,0.0,0.0,81,0.00,,,0.03,Wunderground v.1.15,2013-02-10 06:39:00,
2013-02-10 01:41:00,-0.9,-5.3,30.39,NNE,30,0.0,0.0,81,0.00,,,0.03,Wunderground v.1.15,2013-02-10 06:41:00,
2013-02-10 01:42:00,-1.0,-5.4,30.39,NNE,30,0.0,0.0,81,0.00,,,0.03,Wunderground v.1.15,2013-02-10 06:42:00,
2013-02-10 01:46:00,-1.2,-5.9,30.39,NNE,30,0.0,0.0,80,0.00,,,0.03,Wunderground v.1.15,2013-02-10 06:46:00,
2013-02-10 01:47:00,-1.2,-5.9,30.39,NNE,30,0.0,0.0,80,0.00,,,0.03,Wunderground v.1.15,2013-02-10 06:47:00,
2013-02-10 01:48:00,-1.3,-6.0,30.39,NNE,30,0.0,0.0,80,0.00,,,0.03,Wunderground v.1.15,2013-02-10 06:48:00,
2013-02-10 01:51:00,-1.3,-5.7,30.39,NNE,30,0.0,0.0,81,0.00,,,0.03,Wunderground v.1.15,2013-02-10 06:51:00,
2013-02-10 01:52:00,-1.4,-5.8,30.39,NNE,30,0.0,0.0,81,0.00,,,0.03,Wunderground v.1.15,2013-02-10 06:52:00,
2013-02-10 01:53:00,-1.4,-5.8,30.39,NNE,30,0.0,0.0,81,0.00,,,0.03,Wunderground v.1.15,2013-02-10 06:53:00,
2013-02-10 01:57:00,-1.6,-6.0,30.39,NNE,30,0.0,0.0,81,0.00,,,0.03,Wunderground v.1.15,2013-02-10 06:57:00,
2013-02-10 01:58:00,-1.7,-6.1,30.39,NNE,30,0.0,0.0,81,0.00,,,0.03,Wunderground v.1.15,2013-02-10 06:58:00,
2013-02-10 01:59:00,-1.7,-6.1,30.39,NNE,30,0.0,0.0,81,0.00,,,0.03,Wunderground v.1.15,2013-02-10 06:59:00,
2013-02-10 02:00:00,-1.8,-6.2,30.39,NNE,30,0.0,0.0,81,0.00,,,0.03,Wunderground v.1.15,2013-02-10 07:00:00,
2013-02-10 02:03:00,-1.8,-6.2,30.39,NNE,30,0.0,0.0,81,0.00,,,0.03,Wunderground v.1.15,2013-02-10 07:03:00,
2013-02-10 02:04:00,-1.8,-6.2,30.39,NNE,30,0.0,0.0,81,0.00,,,0.03,Wunderground v.1.15,2013-02-10 07:04:00,
2013-02-10 02:06:00,-1.7,-5.9,30.39,NNE,30,0.0,0.0,82,0.00,,,0.03,Wunderground v.1.15,2013-02-10 07:06:00,
2013-02-10 02:08:00,-1.6,-5.8,30.39,NNE,30,0.0,0.0,82,0.00,,,0.03,Wunderground v.1.15,2013-02-10 07:08:00,
2013-02-10 02:09:00,-1.4,-5.6,30.39,NNE,30,0.0,0.0,82,0.00,,,0.03,Wunderground v.1.15,2013-02-10 07:09:00,
2013-02-10 02:11:00,-1.3,-5.5,30.39,NNE,30,0.0,0.0,82,0.00,,,0.03,Wunderground v.1.15,2013-02-10 07:11:00,
2013-02-10 02:13:00,-1.3,-5.5,30.39,NNE,30,0.0,0.0,82,0.00,,,0.03,Wunderground v.1.15,2013-02-10 07:13:00,
2013-02-10 02:15:00,-1.2,-5.4,30.39,NNE,30,0.0,0.0,82,0.00,,,0.03,Wunderground v.1.15,2013-02-10 07:15:00,
2013-02-10 02:17:00,-1.3,-5.5,30.40,NNE,30,0.0,0.0,82,0.00,,,0.03,Wunderground v.1.15,2013-02-10 07:17:00,
2013-02-10 02:20:00,-1.4,-5.6,30.40,NNE,30,0.0,0.0,82,0.00,,,0.03,Wunderground v.1.15,2013-02-10 07:20:00,
2013-02-10 02:21:00,-1.4,-5.6,30.40,NNE,30,0.0,0.0,82,0.00,,,0.03,Wunderground v.1.15,2013-02-10 07:21:00,
2013-02-10 02:23:00,-1.5,-5.9,30.39,NNE,30,0.0,0.0,81,0.00,,,0.03,Wunderground v.1.15,2013-02-10 07:23:00,
2013-02-10 02:24:00,-1.6,-6.0,30.40,NNE,30,0.0,0.0,81,0.00,,,0.03,Wunderground v.1.15,2013-02-10 07:24:00,
2013-02-10 02:26:00,-1.6,-6.0,30.40,NNE,30,0.0,0.0,81,0.00,,,0.03,Wunderground v.1.15,2013-02-10 07:26:00,
2013-02-10 02:27:00,-1.7,-6.1,30.40,NNE,30,0.0,0.0,81,0.00,,,0.03,Wunderground v.1.15,2013-02-10 07:27:00,
2013-02-10 02:29:00,-1.7,-6.1,30.40,NNE,30,0.0,0.0,81,0.00,,,0.03,Wunderground v.1.15,2013-02-10 07:29:00,
2013-02-10 02:32:00,-1.8,-6.2,30.40,NNE,30,0.0,0.0,81,0.00,,,0.03,Wunderground v.1.15,2013-02-10 07:32:00,
2013-02-10 02:33:00,-1.9,-6.1,30.40,NNE,30,0.0,0.0,82,0.00,,,0.03,Wunderground v.1.15,2013-02-10 07:33:00,
2013-02-10 02:37:00,-1.9,-6.3,30.40,NNE,30,0.0,0.0,81,0.00,,,0.03,Wunderground v.1.15,2013-02-10 07:37:00,
2013-02-10 02:38:00,-2.0,-6.4,30.40,NNE,30,0.0,0.0,81,0.00,,,0.03,Wunderground v.1.15,2013-02-10 07:38:00,
2013-02-10 02:39:00,-2.1,-6.2,30.40,NNE,30,0.0,0.0,82,0.00,,,0.03,Wunderground v.1.15,2013-02-10 07:39:00,
2013-02-10 02:42:00,-2.1,-6.5,30.40,NNE,30,0.0,0.0,81,0.00,,,0.03,Wunderground v.1.15,2013-02-10 07:42:00,
2013-02-10 02:43:00,-2.2,-6.3,30.40,NNE,30,0.0,0.0,82,0.00,,,0.03,Wunderground v.1.15,2013-02-10 07:43:00,
2013-02-10 02:44:00,-2.2,-6.6,30.40,NNE,30,0.0,0.0,81,0.00,,,0.03,Wunderground v.1.15,2013-02-10 07:44:00,
2013-02-10 02:46:00,-2.2,-6.3,30.40,NNE,30,0.0,0.0,82,0.00,,,0.03,Wunderground v.1.15,2013-02-10 07:46:00,
2013-02-10 02:48:00,-2.3,-6.4,30.40,NNE,30,0.0,0.0,82,0.00,,,0.03,Wunderground v.1.15,2013-02-10 07:48:00,
2013-02-10 02:51:00,-2.4,-6.8,30.40,NNE,30,0.0,0.0,81,0.00,,,0.03,Wunderground v.1.15,2013-02-10 07:51:00,
2013-02-10 02:52:00,-2.5,-6.9,30.40,NNE,30,0.0,0.0,81,0.00,,,0.03,Wunderground v.1.15,2013-02-10 07:52:00,
2013-02-10 02:53:00,-2.6,-7.0,30.40,NNE,30,0.0,0.0,81,0.00,,,0.03,Wunderground v.1.15,2013-02-10 07:53:00,
2013-02-10 02:54:00,-2.6,-7.0,30.40,NNE,30,0.0,0.0,81,0.00,,,0.03,Wunderground v.1.15,2013-02-10 07:54:00,
2013-02-10 02:56:00,-2.7,-7.1,30.40,NNE,30,0.0,0.0,81,0.00,,,0.03,Wunderground v.1.15,2013-02-10 07:56:00,
2013-02-10 02:59:00,-2.7,-6.8,30.40,NNE,30,0.0,0.0,82,0.00,,,0.03,Wunderground v.1.15,2013-02-10 07:59:00,
2013-02-10 03:01:00,-2.7,-6.8,30.40,NNE,30,0.0,0.0,82,0.00,,,0.03,Wunderground v.1.15,2013-02-10 08:01:00,
2013-02-10 03:03:00,-2.7,-6.8,30.40,NNE,30,0.0,0.0,82,0.00,,,0.03,Wunderground v.1.15,2013-02-10 08:03:00,
2013-02-10 03:04:00,-2.8,-6.9,30.40,NNE,30,0.0,0.0,82,0.00,,,0.03,Wunderground v.1.15,2013-02-10 08:04:00,
2013-02-10 03:06:00,-2.9,-7.0,30.40,NNE,30,0.0,0.0,82,0.00,,,0.03,Wunderground v.1.15,2013-02-10 08:06:00,
2013-02-10 03:08:00,-2.9,-7.0,30.40,NNE,30,0.0,0.0,82,0.00,,,0.03,Wunderground v.1.15,2013-02-10 08:08:00,
2013-02-10 03:09:00,-3.0,-7.1,30.40,NNE,30,0.0,0.0,82,0.00,,,0.03,Wunderground v.1.15,2013-02-10 08:09:00,
2013-02-10 03:10:00,-3.0,-7.1,30.40,NNE,30,0.0,0.0,82,0.00,,,0.03,Wunderground v.1.15,2013-02-10 08:10:00,
2013-02-10 03:13:00,-3.0,-7.1,30.40,NNE,30,0.0,0.0,82,0.00,,,0.03,Wunderground v.1.15,2013-02-10 08:13:00,
2013-02-10 03:14:00,-3.0,-7.1,30.40,NNE,30,0.0,0.0,82,0.00,,,0.03,Wunderground v.1.15,2013-02-10 08:14:00,
2013-02-10 03:15:00,-3.0,-7.1,30.40,NNE,30,0.0,0.0,82,0.00,,,0.03,Wunderground v.1.15,2013-02-10 08:15:00,
2013-02-10 03:17:00,-3.0,-7.1,30.41,NNE,30,0.0,0.0,82,0.00,,,0.03,Wunderground v.1.15,2013-02-10 08:17:00,
2013-02-10 03:19:00,-3.0,-7.1,30.41,NNE,30,0.0,0.0,82,0.00,,,0.03,Wunderground v.1.15,2013-02-10 08:19:00,
2013-02-10 03:20:00,-3.0,-7.1,30.41,NNE,30,0.0,0.0,82,0.00,,,0.03,Wunderground v.1.15,2013-02-10 08:20:00,
2013-02-10 03:21:00,-3.0,-7.1,30.41,NNE,30,0.0,0.0,82,0.00,,,0.03,Wunderground v.1.15,2013-02-10 08:21:00,
2013-02-10 03:22:00,-3.0,-7.1,30.41,NNE,30,0.0,0.0,82,0.00,,,0.03,Wunderground v.1.15,2013-02-10 08:22:00,
2013-02-10 03:24:00,-3.1,-7.2,30.41,NNE,30,0.0,0.0,82,0.00,,,0.03,Wunderground v.1.15,2013-02-10 08:24:00,
2013-02-10 03:25:00,-3.2,-7.3,30.41,NNE,30,0.0,0.0,82,0.00,,,0.03,Wunderground v.1.15,2013-02-10 08:25:00,
2013-02-10 03:26:00,-3.2,-7.3,30.41,NNE,30,0.0,0.0,82,0.00,,,0.03,Wunderground v.1.15,2013-02-10 08:26:00,
2013-02-10 03:27:00,-3.2,-7.3,30.41,NNE,30,0.0,0.0,82,0.00,,,0.03,Wunderground v.1.15,2013-02-10 08:27:00,
2013-02-10 03:29:00,-3.3,-7.4,30.41,NNE,30,0.0,0.0,82,0.00,,,0.03,Wunderground v.1.15,2013-02-10 08:29:00,
2013-02-10 03:31:00,-3.4,-7.5,30.41,NNE,30,0.0,0.0,82,0.00,,,0.03,Wunderground v.1.15,2013-02-10 08:31:00,
2013-02-10 03:33:00,-3.4,-7.5,30.41,NNE,30,0.0,0.0,82,0.00,,,0.03,Wunderground v.1.15,2013-02-10 08:33:00,
2013-02-10 03:35:00,-3.5,-7.4,30.41,NNE,30,0.0,0.0,83,0.00,,,0.03,Wunderground v.1.15,2013-02-10 08:35:00,
2013-02-10 03:38:00,-3.5,-7.4,30.41,NNE,30,0.0,0.0,83,0.00,,,0.03,Wunderground v.1.15,2013-02-10 08:38:00,
2013-02-10 03:39:00,-3.5,-7.4,30.41,NNE,30,0.0,0.0,83,0.00,,,0.03,Wunderground v.1.15,2013-02-10 08:39:00,
2013-02-10 03:40:00,-3.6,-7.5,30.41,NNE,30,0.0,0.0,83,0.00,,,0.03,Wunderground v.1.15,2013-02-10 08:40:00,
2013-02-10 03:43:00,-3.6,-7.5,30.41,NNE,30,0.0,0.0,83,0.00,,,0.03,Wunderground v.1.15,2013-02-10 08:43:00,
2013-02-10 03:44:00,-3.6,-7.5,30.41,NNE,30,0.0,0.0,83,0.00,,,0.03,Wunderground v.1.15,2013-02-10 08:44:00,
2013-02-10 03:46:00,-3.5,-7.4,30.41,NNE,30,0.0,0.0,83,0.00,,,0.03,Wunderground v.1.15,2013-02-10 08:46:00,
2013-02-10 03:48:00,-3.6,-7.5,30.41,NNE,30,0.0,0.0,83,0.00,,,0.03,Wunderground v.1.15,2013-02-10 08:48:00,
2013-02-10 03:49:00,-3.5,-7.4,30.41,NNE,30,0.0,0.0,83,0.00,,,0.03,Wunderground v.1.15,2013-02-10 08:49:00,
2013-02-10 03:50:00,-3.6,-7.5,30.41,NNE,30,0.0,0.0,83,0.00,,,0.03,Wunderground v.1.15,2013-02-10 08:50:00,
2013-02-10 03:51:00,-3.6,-7.5,30.42,NNE,30,0.0,0.0,83,0.00,,,0.03,Wunderground v.1.15,2013-02-10 08:51:00,
2013-02-10 03:54:00,-3.6,-7.5,30.42,NNE,30,0.0,0.0,83,0.00,,,0.03,Wunderground v.1.15,2013-02-10 08:54:00,
2013-02-10 03:56:00,-3.6,-7.5,30.42,NNE,30,0.0,0.0,83,0.00,,,0.03,Wunderground v.1.15,2013-02-10 08:56:00,
2013-02-10 03:58:00,-3.6,-7.5,30.42,NNE,30,0.0,0.0,83,0.00,,,0.03,Wunderground v.1.15,2013-02-10 08:58:00,
2013-02-10 04:01:00,-3.5,-7.4,30.42,NNE,30,0.0,0.0,83,0.00,,,0.03,Wunderground v.1.15,2013-02-10 09:01:00,
2013-02-10 04:02:00,-3.5,-7.1,30.41,NNE,30,0.0,0.0,84,0.00,,,0.03,Wunderground v.1.15,2013-02-10 09:02:00,
2013-02-10 04:04:00,-3.5,-7.4,30.41,NNE,30,0.0,0.0,83,0.00,,,0.03,Wunderground v.1.15,2013-02-10 09:04:00,
2013-02-10 04:08:00,-3.5,-7.1,30.41,NNE,30,0.0,0.0,84,0.00,,,0.03,Wunderground v.1.15,2013-02-10 09:08:00,
2013-02-10 04:09:00,-3.5,-7.1,30.41,NNE,30,0.0,0.0,84,0.00,,,0.03,Wunderground v.1.15,2013-02-10 09:09:00,
2013-02-10 04:10:00,-3.5,-7.1,30.41,NNE,30,0.0,0.0,84,0.00,,,0.03,Wunderground v.1.15,2013-02-10 09:10:00,
2013-02-10 04:13:00,-3.4,-7.0,30.41,NNE,30,0.0,0.0,84,0.00,,,0.03,Wunderground v.1.15,2013-02-10 09:13:00,
2013-02-10 04:14:00,-3.4,-7.0,30.41,NNE,30,0.0,0.0,84,0.00,,,0.03,Wunderground v.1.15,2013-02-10 09:14:00,
2013-02-10 04:16:00,-3.4,-7.0,30.42,NNE,30,0.0,0.0,84,0.00,,,0.03,Wunderground v.1.15,2013-02-10 09:16:00,
2013-02-10 04:19:00,-3.5,-7.1,30.42,NNE,30,0.0,0.0,84,0.00,,,0.03,Wunderground v.1.15,2013-02-10 09:19:00,
2013-02-10 04:20:00,-3.5,-7.4,30.42,NNE,30,0.0,0.0,83,0.00,,,0.03,Wunderground v.1.15,2013-02-10 09:20:00,
2013-02-10 04:22:00,-3.6,-7.5,30.42,NNE,30,0.0,0.0,83,0.00,,,0.03,Wunderground v.1.15,2013-02-10 09:22:00,
2013-02-10 04:23:00,-3.6,-7.5,30.42,NNE,30,0.0,0.0,83,0.00,,,0.03,Wunderground v.1.15,2013-02-10 09:23:00,
2013-02-10 04:25:00,-3.6,-7.5,30.42,NNE,30,0.0,0.0,83,0.00,,,0.03,Wunderground v.1.15,2013-02-10 09:25:00,
2013-02-10 04:26:00,-3.6,-7.5,30.42,NNE,30,0.0,0.0,83,0.00,,,0.03,Wunderground v.1.15,2013-02-10 09:26:00,
2013-02-10 04:27:00,-3.6,-7.2,30.42,NNE,30,0.0,0.0,84,0.00,,,0.03,Wunderground v.1.15,2013-02-10 09:27:00,
2013-02-10 04:28:00,-3.6,-7.2,30.42,NNE,30,0.0,0.0,84,0.00,,,0.03,Wunderground v.1.15,2013-02-10 09:28:00,
2013-02-10 04:31:00,-3.6,-7.2,30.42,NNE,30,0.0,0.0,84,0.00,,,0.03,Wunderground v.1.15,2013-02-10 09:31:00,
2013-02-10 04:32:00,-3.6,-7.5,30.42,NNE,30,0.0,0.0,83,0.00,,,0.03,Wunderground v.1.15,2013-02-10 09:32:00,
2013-02-10 04:33:00,-3.7,-7.6,30.42,NNE,30,0.0,0.0,83,0.00,,,0.03,Wunderground v.1.15,2013-02-10 09:33:00,
2013-02-10 04:38:00,-3.8,-7.7,30.42,NNE,30,0.0,0.0,83,0.00,,,0.03,Wunderground v.1.15,2013-02-10 09:38:00,
2013-02-10 04:39:00,-3.9,-7.8,30.42,NNE,30,0.0,0.0,83,0.00,,,0.03,Wunderground v.1.15,2013-02-10 09:39:00,
2013-02-10 04:43:00,-4.0,-7.9,30.42,NNE,30,0.0,0.0,83,0.00,,,0.03,Wunderground v.1.15,2013-02-10 09:43:00,
2013-02-10 04:44:00,-4.1,-8.0,30.42,NNE,30,0.0,0.0,83,0.00,,,0.03,Wunderground v.1.15,2013-02-10 09:44:00,
2013-02-10 04:45:00,-4.1,-8.0,30.42,NNE,30,0.0,0.0,83,0.00,,,0.03,Wunderground v.1.15,2013-02-10 09:45:00,
2013-02-10 04:46:00,-4.1,-8.0,30.42,NNE,30,0.0,0.0,83,0.00,,,0.03,Wunderground v.1.15,2013-02-10 09:46:00,
2013-02-10 04:50:00,-4.3,-8.2,30.42,NNE,30,0.0,0.0,83,0.00,,,0.03,Wunderground v.1.15,2013-02-10 09:50:00,
2013-02-10 04:51:00,-4.3,-8.2,30.42,NNE,30,0.0,0.0,83,0.00,,,0.03,Wunderground v.1.15,2013-02-10 09:51:00,
2013-02-10 04:54:00,-4.4,-8.3,30.42,NNE,30,0.0,0.0,83,0.00,,,0.03,Wunderground v.1.15,2013-02-10 09:54:00,
2013-02-10 04:55:00,-4.4,-8.3,30.42,NNE,30,0.0,0.0,83,0.00,,,0.03,Wunderground v.1.15,2013-02-10 09:55:00,
2013-02-10 04:56:00,-4.4,-8.3,30.42,NNE,30,0.0,0.0,83,0.00,,,0.03,Wunderground v.1.15,2013-02-10 09:56:00,
2013-02-10 04:59:00,-4.5,-8.4,30.42,NNE,30,0.0,0.0,83,0.00,,,0.03,Wunderground v.1.15,2013-02-10 09:59:00,
2013-02-10 05:00:00,-4.6,-8.4,30.42,NNE,30,0.0,0.0,83,0.00,,,0.03,Wunderground v.1.15,2013-02-10 10:00:00,
2013-02-10 05:01:00,-4.6,-8.4,30.42,NNE,30,0.0,0.0,83,0.00,,,0.03,Wunderground v.1.15,2013-02-10 10:01:00,
2013-02-10 05:03:00,-4.8,-8.6,30.42,NNE,30,0.0,0.0,83,0.00,,,0.03,Wunderground v.1.15,2013-02-10 10:03:00,
2013-02-10 05:04:00,-4.8,-8.6,30.42,NNE,30,0.0,0.0,83,0.00,,,0.03,Wunderground v.1.15,2013-02-10 10:04:00,
2013-02-10 05:06:00,-4.9,-8.7,30.42,NNE,30,0.0,0.0,83,0.00,,,0.03,Wunderground v.1.15,2013-02-10 10:06:00,
2013-02-10 05:07:00,-4.9,-8.7,30.42,NNE,30,0.0,0.0,83,0.00,,,0.03,Wunderground v.1.15,2013-02-10 10:07:00,
2013-02-10 05:09:00,-4.9,-8.7,30.42,NNE,30,0.0,0.0,83,0.00,,,0.03,Wunderground v.1.15,2013-02-10 10:09:00,
2013-02-10 05:11:00,-5.0,-8.8,30.42,NNE,30,0.0,0.0,83,0.00,,,0.03,Wunderground v.1.15,2013-02-10 10:11:00,
2013-02-10 05:12:00,-5.0,-8.8,30.42,NNE,30,0.0,0.0,83,0.00,,,0.03,Wunderground v.1.15,2013-02-10 10:12:00,
2013-02-10 05:14:00,-5.0,-8.8,30.42,NNE,30,0.0,0.0,83,0.00,,,0.03,Wunderground v.1.15,2013-02-10 10:14:00,
2013-02-10 05:16:00,-5.1,-8.9,30.42,NNE,30,0.0,0.0,83,0.00,,,0.03,Wunderground v.1.15,2013-02-10 10:16:00,
2013-02-10 05:17:00,-5.1,-8.9,30.42,NNE,30,0.0,0.0,83,0.00,,,0.03,Wunderground v.1.15,2013-02-10 10:17:00,
2013-02-10 05:19:00,-5.2,-9.0,30.42,NNE,30,0.0,0.0,83,0.00,,,0.03,Wunderground v.1.15,2013-02-10 10:19:00,
2013-02-10 05:21:00,-5.2,-9.0,30.42,NNE,30,0.0,0.0,83,0.00,,,0.03,Wunderground v.1.15,2013-02-10 10:21:00,
2013-02-10 05:22:00,-5.2,-9.0,30.42,NNE,30,0.0,0.0,83,0.00,,,0.03,Wunderground v.1.15,2013-02-10 10:22:00,
2013-02-10 05:25:00,-5.1,-8.7,30.43,NNE,30,0.0,0.0,84,0.00,,,0.03,Wunderground v.1.15,2013-02-10 10:25:00,
2013-02-10 05:27:00,-5.1,-8.9,30.43,NNE,30,0.0,0.0,83,0.00,,,0.03,Wunderground v.1.15,2013-02-10 10:27:00,
2013-02-10 05:28:00,-5.1,-8.9,30.43,NNE,30,0.0,0.0,83,0.00,,,0.03,Wunderground v.1.15,2013-02-10 10:28:00,
2013-02-10 05:31:00,-5.2,-9.0,30.43,NNE,30,0.0,0.0,83,0.00,,,0.03,Wunderground v.1.15,2013-02-10 10:31:00,
2013-02-10 05:33:00,-5.2,-8.8,30.43,NNE,30,0.0,0.0,84,0.00,,,0.03,Wunderground v.1.15,2013-02-10 10:33:00,
2013-02-10 05:34:00,-5.2,-8.8,30.43,NNE,30,0.0,0.0,84,0.00,,,0.03,Wunderground v.1.15,2013-02-10 10:34:00,
2013-02-10 05:38:00,-5.2,-8.8,30.43,NNE,30,0.0,0.0,84,0.00,,,0.03,Wunderground v.1.15,2013-02-10 10:38:00,
2013-02-10 05:39:00,-5.2,-8.8,30.43,NNE,30,0.0,0.0,84,0.00,,,0.03,Wunderground v.1.15,2013-02-10 10:39:00,
2013-02-10 05:41:00,-5.2,-8.8,30.44,NNE,30,0.0,0.0,84,0.00,,,0.03,Wunderground v.1.15,2013-02-10 10:41:00,
2013-02-10 05:42:00,-5.2,-8.8,30.44,NNE,30,0.0,0.0,84,0.00,,,0.03,Wunderground v.1.15,2013-02-10 10:42:00,
2013-02-10 05:44:00,-5.3,-8.9,30.44,NNE,30,0.0,0.0,84,0.00,,,0.03,Wunderground v.1.15,2013-02-10 10:44:00,
2013-02-10 05:45:00,-5.3,-8.9,30.44,NNE,30,0.0,0.0,84,0.00,,,0.03,Wunderground v.1.15,2013-02-10 10:45:00,
2013-02-10 05:47:00,-5.3,-8.9,30.44,NNE,30,0.0,0.0,84,0.00,,,0.03,Wunderground v.1.15,2013-02-10 10:47:00,
2013-02-10 05:50:00,-5.3,-8.9,30.44,NNE,30,0.0,0.0,84,0.00,,,0.03,Wunderground v.1.15,2013-02-10 10:50:00,
2013-02-10 05:52:00,-5.3,-8.9,30.44,NNE,30,0.0,0.0,84,0.00,,,0.03,Wunderground v.1.15,2013-02-10 10:52:00,
2013-02-10 05:54:00,-5.3,-8.9,30.44,NNE,30,0.0,0.0,84,0.00,,,0.03,Wunderground v.1.15,2013-02-10 10:54:00,
2013-02-10 05:57:00,-5.4,-9.0,30.44,NNE,30,0.0,0.0,84,0.00,,,0.03,Wunderground v.1.15,2013-02-10 10:57:00,
2013-02-10 05:58:00,-5.4,-9.0,30.44,NNE,30,0.0,0.0,84,0.00,,,0.03,Wunderground v.1.15,2013-02-10 10:58:00,
2013-02-10 06:01:00,-5.4,-9.0,30.44,NNE,30,0.0,0.0,84,0.00,,,0.03,Wunderground v.1.15,2013-02-10 11:01:00,
2013-02-10 06:02:00,-5.4,-9.0,30.44,NNE,30,0.0,0.0,84,0.00,,,0.03,Wunderground v.1.15,2013-02-10 11:02:00,
2013-02-10 06:04:00,-5.5,-9.1,30.44,NNE,30,0.0,0.0,84,0.00,,,0.03,Wunderground v.1.15,2013-02-10 11:04:00,
2013-02-10 06:07:00,-5.5,-9.1,30.45,NNE,30,0.0,0.0,84,0.00,,,0.03,Wunderground v.1.15,2013-02-10 11:07:00,
2013-02-10 06:09:00,-5.5,-9.1,30.45,NNE,30,0.0,0.0,84,0.00,,,0.03,Wunderground v.1.15,2013-02-10 11:09:00,
2013-02-10 06:10:00,-5.5,-9.1,30.45,NNE,30,0.0,0.0,84,0.00,,,0.03,Wunderground v.1.15,2013-02-10 11:10:00,
2013-02-10 06:13:00,-5.6,-9.2,30.45,NNE,30,0.0,0.0,84,0.00,,,0.03,Wunderground v.1.15,2013-02-10 11:13:00,
2013-02-10 06:14:00,-5.6,-9.2,30.45,NNE,30,0.0,0.0,84,0.00,,,0.03,Wunderground v.1.15,2013-02-10 11:14:00,
2013-02-10 06:15:00,-5.7,-9.3,30.45,NNE,30,0.0,0.0,84,0.00,,,0.03,Wunderground v.1.15,2013-02-10 11:15:00,
2013-02-10 06:16:00,-5.7,-9.3,30.45,NNE,30,0.0,0.0,84,0.00,,,0.03,Wunderground v.1.15,2013-02-10 11:16:00,
2013-02-10 06:18:00,-5.7,-9.5,30.45,NNE,30,0.0,0.0,83,0.00,,,0.03,Wunderground v.1.15,2013-02-10 11:18:00,
2013-02-10 06:21:00,-5.8,-9.6,30.45,NNE,30,0.0,0.0,83,0.00,,,0.03,Wunderground v.1.15,2013-02-10 11:21:00,
2013-02-10 06:22:00,-5.8,-9.6,30.45,NNE,30,0.0,0.0,83,0.00,,,0.03,Wunderground v.1.15,2013-02-10 11:22:00,
2013-02-10 06:25:00,-5.8,-9.6,30.45,NNE,30,0.0,0.0,83,0.00,,,0.03,Wunderground v.1.15,2013-02-10 11:25:00,
2013-02-10 06:26:00,-5.8,-9.6,30.45,NNE,30,0.0,0.0,83,0.00,,,0.03,Wunderground v.1.15,2013-02-10 11:26:00,
2013-02-10 06:27:00,-5.8,-9.6,30.45,NNE,30,0.0,0.0,83,0.00,,,0.03,Wunderground v.1.15,2013-02-10 11:27:00,
2013-02-10 06:31:00,-5.9,-9.7,30.45,NNE,30,0.0,0.0,83,0.00,,,0.03,Wunderground v.1.15,2013-02-10 11:31:00,
2013-02-10 06:36:00,-6.0,-9.8,30.46,NNE,30,0.0,0.0,83,0.00,,,0.03,Wunderground v.1.15,2013-02-10 11:36:00,
2013-02-10 06:37:00,-6.0,-9.8,30.46,NNE,30,0.0,0.0,83,0.00,,,0.03,Wunderground v.1.15,2013-02-10 11:37:00,
2013-02-10 06:42:00,-6.1,-9.7,30.47,NNE,30,0.0,0.0,84,0.00,,,0.03,Wunderground v.1.15,2013-02-10 11:42:00,
2013-02-10 06:43:00,-6.1,-9.7,30.47,NNE,30,0.0,0.0,84,0.00,,,0.03,Wunderground v.1.15,2013-02-10 11:43:00,
2013-02-10 06:44:00,-6.1,-9.9,30.47,NNE,30,0.0,0.0,83,0.00,,,0.03,Wunderground v.1.15,2013-02-10 11:44:00,
2013-02-10 06:45:00,-6.1,-9.9,30.47,NNE,30,0.0,0.0,83,0.00,,,0.03,Wunderground v.1.15,2013-02-10 11:45:00,
2013-02-10 06:48:00,-6.1,-9.7,30.47,NNE,30,0.0,0.0,84,0.00,,,0.03,Wunderground v.1.15,2013-02-10 11:48:00,
2013-02-10 06:49:00,-6.1,-9.7,30.48,NNE,30,0.0,0.0,84,0.00,,,0.03,Wunderground v.1.15,2013-02-10 11:49:00,
2013-02-10 06:50:00,-6.1,-9.7,30.48,NNE,30,0.0,0.0,84,0.00,,,0.03,Wunderground v.1.15,2013-02-10 11:50:00,
2013-02-10 06:52:00,-6.1,-9.9,30.48,NNE,30,0.0,0.0,83,0.00,,,0.03,Wunderground v.1.15,2013-02-10 11:52:00,
2013-02-10 06:54:00,-6.1,-9.7,30.48,NNE,30,0.0,0.0,84,0.00,,,0.03,Wunderground v.1.15,2013-02-10 11:54:00,
2013-02-10 06:55:00,-6.1,-9.7,30.48,NNE,30,0.0,0.0,84,0.00,,,0.03,Wunderground v.1.15,2013-02-10 11:55:00,
2013-02-10 06:56:00,-6.1,-9.7,30.48,NNE,30,0.0,0.0,84,0.00,,,0.03,Wunderground v.1.15,2013-02-10 11:56:00,
2013-02-10 06:57:00,-6.1,-9.9,30.48,NNE,30,0.0,0.0,83,0.00,,,0.03,Wunderground v.1.15,2013-02-10 11:57:00,
2013-02-10 07:00:00,-6.2,-10.0,30.48,NNE,30,0.0,0.0,83,0.00,,,0.03,Wunderground v.1.15,2013-02-10 12:00:00,
2013-02-10 07:02:00,-6.2,-10.0,30.48,NNE,30,0.0,0.0,83,0.00,,,0.03,Wunderground v.1.15,2013-02-10 12:02:00,
2013-02-10 07:03:00,-6.2,-10.0,30.48,NNE,30,0.0,0.0,83,0.00,,,0.03,Wunderground v.1.15,2013-02-10 12:03:00,
2013-02-10 07:04:00,-6.2,-10.0,30.48,NNE,30,0.0,0.0,83,0.00,,,0.03,Wunderground v.1.15,2013-02-10 12:04:00,
2013-02-10 07:05:00,-6.2,-10.0,30.48,NNE,30,0.0,0.0,83,0.00,,,0.03,Wunderground v.1.15,2013-02-10 12:05:00,
2013-02-10 07:07:00,-6.2,-10.0,30.48,NNE,30,0.0,0.0,83,0.00,,,0.03,Wunderground v.1.15,2013-02-10 12:07:00,
2013-02-10 07:09:00,-6.1,-9.9,30.48,NNE,30,0.0,0.0,83,0.00,,,0.03,Wunderground v.1.15,2013-02-10 12:09:00,
2013-02-10 07:11:00,-6.1,-9.7,30.48,NNE,30,0.0,0.0,84,0.00,,,0.03,Wunderground v.1.15,2013-02-10 12:11:00,
2013-02-10 07:12:00,-6.1,-9.7,30.48,NNE,30,0.0,0.0,84,0.00,,,0.03,Wunderground v.1.15,2013-02-10 12:12:00,
2013-02-10 07:14:00,-6.1,-9.7,30.48,NNE,30,0.0,0.0,84,0.00,,,0.03,Wunderground v.1.15,2013-02-10 12:14:00,
2013-02-10 07:16:00,-6.0,-9.6,30.48,NNE,30,0.0,0.0,84,0.00,,,0.03,Wunderground v.1.15,2013-02-10 12:16:00,
2013-02-10 07:18:00,-6.0,-9.6,30.49,NNE,30,0.0,0.0,84,0.00,,,0.03,Wunderground v.1.15,2013-02-10 12:18:00,
2013-02-10 07:20:00,-5.9,-9.5,30.48,NNE,30,0.0,0.0,84,0.00,,,0.03,Wunderground v.1.15,2013-02-10 12:20:00,
2013-02-10 07:22:00,-5.9,-9.5,30.48,NNE,30,0.0,0.0,84,0.00,,,0.03,Wunderground v.1.15,2013-02-10 12:22:00,
2013-02-10 07:24:00,-5.9,-9.5,30.48,NNE,30,0.0,0.0,84,0.00,,,0.03,Wunderground v.1.15,2013-02-10 12:24:00,
2013-02-10 07:27:00,-5.8,-9.4,30.49,NNE,30,0.0,0.0,84,0.00,,,0.03,Wunderground v.1.15,2013-02-10 12:27:00,
2013-02-10 07:28:00,-5.8,-9.4,30.49,NNE,30,0.0,0.0,84,0.00,,,0.03,Wunderground v.1.15,2013-02-10 12:28:00,
2013-02-10 07:29:00,-5.8,-9.4,30.49,NNE,30,0.0,0.0,84,0.00,,,0.03,Wunderground v.1.15,2013-02-10 12:29:00,
2013-02-10 07:33:00,-5.7,-9.3,30.50,NNE,30,0.0,0.0,84,0.00,,,0.03,Wunderground v.1.15,2013-02-10 12:33:00,
2013-02-10 07:34:00,-5.6,-9.2,30.50,NNE,30,0.0,0.0,84,0.00,,,0.03,Wunderground v.1.15,2013-02-10 12:34:00,
2013-02-10 07:35:00,-5.6,-9.2,30.50,NNE,30,0.0,0.0,84,0.00,,,0.03,Wunderground v.1.15,2013-02-10 12:35:00,
2013-02-10 07:38:00,-5.4,-9.0,30.50,NNE,30,0.0,0.0,84,0.00,,,0.03,Wunderground v.1.15,2013-02-10 12:38:00,
2013-02-10 07:39:00,-5.4,-9.0,30.50,NNE,30,0.0,0.0,84,0.00,,,0.03,Wunderground v.1.15,2013-02-10 12:39:00,
2013-02-10 07:40:00,-5.4,-9.0,30.50,NNE,30,0.0,0.0,84,0.00,,,0.03,Wunderground v.1.15,2013-02-10 12:40:00,
2013-02-10 07:41:00,-5.3,-8.9,30.50,NNE,30,0.0,0.0,84,0.00,,,0.03,Wunderground v.1.15,2013-02-10 12:41:00,
2013-02-10 07:44:00,-5.2,-8.8,30.50,NNE,30,0.0,0.0,84,0.00,,,0.03,Wunderground v.1.15,2013-02-10 12:44:00,
2013-02-10 07:45:00,-5.2,-8.8,30.50,NNE,30,0.0,0.0,84,0.00,,,0.03,Wunderground v.1.15,2013-02-10 12:45:00,
2013-02-10 07:46:00,-5.2,-8.8,30.50,NNE,30,0.0,0.0,84,0.00,,,0.03,Wunderground v.1.15,2013-02-10 12:46:00,
2013-02-10 07:48:00,-5.1,-8.9,30.51,NNE,30,0.0,0.0,83,0.00,,,0.03,Wunderground v.1.15,2013-02-10 12:48:00,
2013-02-10 07:50:00,-5.0,-8.8,30.50,NNE,30,0.0,0.0,83,0.00,,,0.03,Wunderground v.1.15,2013-02-10 12:50:00,
2013-02-10 07:53:00,-4.8,-8.4,30.50,NNE,30,0.0,0.0,84,0.00,,,0.03,Wunderground v.1.15,2013-02-10 12:53:00,
2013-02-10 07:54:00,-4.8,-8.4,30.50,NNE,30,0.0,0.0,84,0.00,,,0.03,Wunderground v.1.15,2013-02-10 12:54:00,
2013-02-10 07:55:00,-4.6,-8.2,30.51,NNE,30,0.0,0.0,84,0.00,,,0.03,Wunderground v.1.15,2013-02-10 12:55:00,
2013-02-10 07:58:00,-4.4,-8.0,30.51,NNE,30,0.0,0.0,84,0.00,,,0.03,Wunderground v.1.15,2013-02-10 12:58:00,
2013-02-10 07:59:00,-4.4,-8.0,30.51,NNE,30,0.0,0.0,84,0.00,,,0.03,Wunderground v.1.15,2013-02-10 12:59:00,
2013-02-10 08:01:00,-4.1,-7.7,30.52,NNE,30,0.0,0.0,84,0.00,,,0.03,Wunderground v.1.15,2013-02-10 13:01:00,
2013-02-10 08:04:00,-3.8,-7.4,30.51,NNE,30,0.0,0.0,84,0.00,,,0.03,Wunderground v.1.15,2013-02-10 13:04:00,
2013-02-10 08:06:00,-3.7,-7.3,30.52,NNE,30,0.0,0.0,84,0.00,,,0.03,Wunderground v.1.15,2013-02-10 13:06:00,
2013-02-10 08:07:00,-3.5,-7.1,30.52,NNE,30,0.0,0.0,84,0.00,,,0.03,Wunderground v.1.15,2013-02-10 13:07:00,
2013-02-10 08:09:00,-3.3,-6.9,30.52,NNE,30,0.0,0.0,84,0.00,,,0.03,Wunderground v.1.15,2013-02-10 13:09:00,
2013-02-10 08:11:00,-3.1,-6.7,30.52,NNE,30,0.0,0.0,84,0.00,,,0.03,Wunderground v.1.15,2013-02-10 13:11:00,
2013-02-10 08:13:00,-2.8,-6.4,30.52,NNE,30,0.0,0.0,84,0.00,,,0.03,Wunderground v.1.15,2013-02-10 13:13:00,
2013-02-10 08:15:00,-2.6,-6.2,30.52,NNE,30,0.0,0.0,84,0.00,,,0.03,Wunderground v.1.15,2013-02-10 13:15:00,
2013-02-10 08:17:00,-2.4,-6.0,30.52,NNE,30,0.0,0.0,84,0.00,,,0.03,Wunderground v.1.15,2013-02-10 13:17:00,
2013-02-10 08:18:00,-2.2,-5.8,30.52,NNE,30,0.0,0.0,84,0.00,,,0.03,Wunderground v.1.15,2013-02-10 13:18:00,
2013-02-10 08:20:00,-2.0,-5.9,30.52,NNE,30,0.0,0.0,83,0.00,,,0.03,Wunderground v.1.15,2013-02-10 13:20:00,
2013-02-10 08:21:00,-2.0,-5.9,30.52,NNE,30,0.0,0.0,83,0.00,,,0.03,Wunderground v.1.15,2013-02-10 13:21:00,
2013-02-10 08:22:00,-1.8,-5.7,30.52,NNE,30,0.0,0.0,83,0.00,,,0.03,Wunderground v.1.15,2013-02-10 13:22:00,
2013-02-10 08:25:00,-1.4,-5.1,30.52,NNE,30,0.0,0.0,84,0.00,,,0.03,Wunderground v.1.15,2013-02-10 13:25:00,
2013-02-10 08:26:00,-1.2,-4.9,30.52,NNE,30,0.0,0.0,84,0.00,,,0.03,Wunderground v.1.15,2013-02-10 13:26:00,
2013-02-10 08:28:00,-0.9,-4.6,30.51,NNE,30,0.0,0.0,84,0.00,,,0.03,Wunderground v.1.15,2013-02-10 13:28:00,
2013-02-10 08:31:00,-0.4,-4.1,30.52,NNE,30,0.0,0.0,84,0.00,,,0.03,Wunderground v.1.15,2013-02-10 13:31:00,
2013-02-10 08:32:00,-0.3,-4.2,30.52,NNE,30,0.0,0.0,83,0.00,,,0.03,Wunderground v.1.15,2013-02-10 13:32:00,
2013-02-10 08:33:00,0.0,-3.9,30.51,NNE,30,0.0,0.0,83,0.00,,,0.03,Wunderground v.1.15,2013-02-10 13:33:00,
2013-02-10 08:37:00,0.4,-3.5,30.51,NNE,30,0.0,0.0,83,0.00,,,0.03,Wunderground v.1.15,2013-02-10 13:37:00,
2013-02-10 08:39:00,0.8,-3.2,30.51,NNE,30,0.0,0.0,83,0.00,,,0.03,Wunderground v.1.15,2013-02-10 13:39:00,
2013-02-10 08:43:00,1.6,-2.4,30.52,NNE,30,0.0,0.0,83,0.00,,,0.03,Wunderground v.1.15,2013-02-10 13:43:00,
2013-02-10 08:44:00,1.7,-2.3,30.52,NNE,30,0.0,0.0,83,0.00,,,0.03,Wunderground v.1.15,2013-02-10 13:44:00,
2013-02-10 08:45:00,1.9,-2.1,30.52,NNE,30,0.0,0.0,83,0.00,,,0.03,Wunderground v.1.15,2013-02-10 13:45:00,
2013-02-10 08:46:00,2.2,-1.8,30.52,NNE,30,0.0,0.0,83,0.00,,,0.03,Wunderground v.1.15,2013-02-10 13:46:00,
2013-02-10 08:49:00,2.8,-1.4,30.52,NNE,30,0.0,0.0,82,0.00,,,0.03,Wunderground v.1.15,2013-02-10 13:49:00,
2013-02-10 08:50:00,3.1,-1.2,30.52,NNE,30,0.0,0.0,82,0.00,,,0.03,Wunderground v.1.15,2013-02-10 13:50:00,
2013-02-10 08:54:00,3.8,-0.5,30.52,NNE,30,0.0,0.0,82,0.00,,,0.03,Wunderground v.1.15,2013-02-10 13:54:00,
2013-02-10 08:58:00,4.7,0.2,30.52,NNE,30,0.0,0.0,81,0.00,,,0.03,Wunderground v.1.15,2013-02-10 13:58:00,
2013-02-10 08:59:00,5.1,0.5,30.52,NNE,30,0.0,0.0,81,0.00,,,0.03,Wunderground v.1.15,2013-02-10 13:59:00,
2013-02-10 09:00:00,5.2,0.6,30.52,NNE,30,0.0,0.0,81,0.00,,,0.03,Wunderground v.1.15,2013-02-10 14:00:00,
2013-02-10 09:04:00,6.6,2.0,30.52,NNE,30,0.0,0.0,81,0.00,,,0.03,Wunderground v.1.15,2013-02-10 14:04:00,
2013-02-10 09:05:00,6.9,2.3,30.52,NNE,30,0.0,0.0,81,0.00,,,0.03,Wunderground v.1.15,2013-02-10 14:05:00,
2013-02-10 09:07:00,7.6,2.7,30.52,NNE,30,0.0,1.0,80,0.00,,,0.03,Wunderground v.1.15,2013-02-10 14:07:00,
2013-02-10 09:08:00,7.8,2.9,30.52,NNE,30,0.0,1.0,80,0.00,,,0.03,Wunderground v.1.15,2013-02-10 14:08:00,
2013-02-10 09:09:00,8.1,2.9,30.52,NNE,30,0.0,1.0,79,0.00,,,0.03,Wunderground v.1.15,2013-02-10 14:09:00,
2013-02-10 09:10:00,8.4,3.2,30.52,NNE,30,0.0,1.0,79,0.00,,,0.03,Wunderground v.1.15,2013-02-10 14:10:00,
2013-02-10 09:15:00,9.9,4.4,30.51,NNE,30,1.0,1.0,78,0.00,,,0.03,Wunderground v.1.15,2013-02-10 14:15:00,
2013-02-10 09:16:00,10.0,4.5,30.51,NNE,30,0.0,1.0,78,0.00,,,0.03,Wunderground v.1.15,2013-02-10 14:16:00,
2013-02-10 09:17:00,10.3,4.8,30.51,SE,139,3.0,3.0,78,0.00,,,0.03,Wunderground v.1.15,2013-02-10 14:17:00,
2013-02-10 09:21:00,11.7,5.9,30.51,SE,139,1.0,3.0,77,0.00,,,0.03,Wunderground v.1.15,2013-02-10 14:21:00,
2013-02-10 09:22:00,12.2,6.1,30.51,SE,139,0.0,1.0,76,0.00,,,0.03,Wunderground v.1.15,2013-02-10 14:22:00,
2013-02-10 09:23:00,12.5,6.1,30.51,SE,139,0.0,1.0,75,0.00,,,0.03,Wunderground v.1.15,2013-02-10 14:23:00,
2013-02-10 09:25:00,13.0,6.6,30.51,SE,139,0.0,1.0,75,0.00,,,0.03,Wunderground v.1.15,2013-02-10 14:25:00,
2013-02-10 09:26:00,13.6,6.8,30.51,SE,139,0.0,1.0,74,0.00,,,0.03,Wunderground v.1.15,2013-02-10 14:26:00,
2013-02-10 09:27:00,14.0,6.9,30.51,SE,139,1.0,1.0,73,0.00,,,0.03,Wunderground v.1.15,2013-02-10 14:27:00,
2013-02-10 09:30:00,14.7,7.3,30.51,SE,139,0.0,1.0,72,0.00,,,0.03,Wunderground v.1.15,2013-02-10 14:30:00,
2013-02-10 09:32:00,15.3,7.6,30.51,SE,140,0.0,1.0,71,0.00,,,0.03,Wunderground v.1.15,2013-02-10 14:32:00,
2013-02-10 09:36:00,16.3,7.3,30.51,SE,136,0.0,2.0,67,0.00,,,0.03,Wunderground v.1.15,2013-02-10 14:36:00,
2013-02-10 09:38:00,16.6,7.5,30.51,SE,136,0.0,2.0,67,0.00,,,0.03,Wunderground v.1.15,2013-02-10 14:38:00,
2013-02-10 09:39:00,16.8,7.7,30.51,SE,136,0.0,2.0,67,0.00,,,0.03,Wunderground v.1.15,2013-02-10 14:39:00,
2013-02-10 09:41:00,17.1,7.3,30.51,SE,136,0.0,2.0,65,0.00,,,0.03,Wunderground v.1.15,2013-02-10 14:41:00,
2013-02-10 09:45:00,17.7,7.9,30.52,SE,136,0.0,1.0,65,0.00,,,0.03,Wunderground v.1.15,2013-02-10 14:45:00,
2013-02-10 09:47:00,18.0,7.9,30.52,SE,136,0.0,1.0,64,0.00,,,0.03,Wunderground v.1.15,2013-02-10 14:47:00,
2013-02-10 09:52:00,17.9,7.1,30.52,WNW,292,3.0,3.0,62,0.00,,,0.03,Wunderground v.1.15,2013-02-10 14:52:00,
2013-02-10 09:53:00,17.5,6.3,30.52,WNW,292,3.0,3.0,61,0.00,,,0.03,Wunderground v.1.15,2013-02-10 14:53:00,
2013-02-10 09:58:00,17.2,6.4,30.52,NW,311,1.0,3.0,62,0.00,,,0.03,Wunderground v.1.15,2013-02-10 14:58:00,
2013-02-10 09:59:00,17.2,6.4,30.52,NW,312,1.0,3.0,62,0.00,,,0.03,Wunderground v.1.15,2013-02-10 14:59:00,
2013-02-10 10:00:00,17.2,6.0,30.52,WNW,300,1.0,3.0,61,0.00,,,0.03,Wunderground v.1.15,2013-02-10 15:00:00,
2013-02-10 10:04:00,17.2,6.4,30.53,NW,317,1.0,2.0,62,0.00,,,0.03,Wunderground v.1.15,2013-02-10 15:04:00,
2013-02-10 10:05:00,17.2,6.4,30.52,NW,317,1.0,2.0,62,0.00,,,0.03,Wunderground v.1.15,2013-02-10 15:05:00,
2013-02-10 10:07:00,17.2,6.4,30.52,NW,315,2.0,3.0,62,0.00,,,0.03,Wunderground v.1.15,2013-02-10 15:07:00,
2013-02-10 10:08:00,17.1,6.3,30.53,West,268,1.0,3.0,62,0.00,,,0.03,Wunderground v.1.15,2013-02-10 15:08:00,
2013-02-10 10:09:00,17.0,6.2,30.53,WNW,292,4.0,4.0,62,0.00,,,0.03,Wunderground v.1.15,2013-02-10 15:09:00,
2013-02-10 10:12:00,16.9,5.8,30.53,West,272,0.0,1.0,61,0.00,,,0.03,Wunderground v.1.15,2013-02-10 15:12:00,
2013-02-10 10:13:00,16.8,5.7,30.53,WNW,297,2.0,2.0,61,0.00,,,0.03,Wunderground v.1.15,2013-02-10 15:13:00,
2013-02-10 10:14:00,16.8,5.7,30.53,WNW,297,1.0,2.0,61,0.00,,,0.03,Wunderground v.1.15,2013-02-10 15:14:00,
2013-02-10 10:17:00,16.7,5.6,30.53,WNW,285,3.0,4.0,61,0.00,,,0.03,Wunderground v.1.15,2013-02-10 15:17:00,
2013-02-10 10:19:00,16.6,5.5,30.53,WNW,285,1.0,4.0,61,0.00,,,0.03,Wunderground v.1.15,2013-02-10 15:19:00,
2013-02-10 10:23:00,16.8,6.0,30.53,WNW,288,3.0,4.0,62,0.00,,,0.03,Wunderground v.1.15,2013-02-10 15:23:00,
2013-02-10 10:24:00,16.9,6.1,30.53,WNW,286,1.0,4.0,62,0.00,,,0.03,Wunderground v.1.15,2013-02-10 15:24:00,
2013-02-10 10:25:00,16.9,5.8,30.53,WNW,286,2.0,4.0,61,0.00,,,0.03,Wunderground v.1.15,2013-02-10 15:25:00,
2013-02-10 10:29:00,17.0,5.9,30.53,WNW,284,3.0,5.0,61,0.00,,,0.03,Wunderground v.1.15,2013-02-10 15:29:00,
2013-02-10 10:30:00,17.0,5.9,30.53,WNW,284,1.0,5.0,61,0.00,,,0.03,Wunderground v.1.15,2013-02-10 15:30:00,
2013-02-10 10:31:00,17.0,5.9,30.53,WNW,284,1.0,5.0,61,0.00,,,0.03,Wunderground v.1.15,2013-02-10 15:31:00,
2013-02-10 10:34:00,17.1,5.9,30.53,WNW,290,2.0,3.0,61,0.00,,,0.03,Wunderground v.1.15,2013-02-10 15:34:00,
2013-02-10 10:35:00,17.0,5.5,30.53,WNW,288,3.0,4.0,60,0.00,,,0.03,Wunderground v.1.15,2013-02-10 15:35:00,
2013-02-10 10:36:00,17.0,5.5,30.53,WNW,288,1.0,4.0,60,0.00,,,0.03,Wunderground v.1.15,2013-02-10 15:36:00,
2013-02-10 10:40:00,17.1,5.9,30.53,WNW,288,1.0,4.0,61,0.00,,,0.03,Wunderground v.1.15,2013-02-10 15:40:00,
2013-02-10 10:42:00,17.2,6.0,30.53,West,262,1.0,2.0,61,0.00,,,0.03,Wunderground v.1.15,2013-02-10 15:42:00,
2013-02-10 10:43:00,17.3,6.1,30.53,West,262,0.0,2.0,61,0.00,,,0.03,Wunderground v.1.15,2013-02-10 15:43:00,
2013-02-10 10:45:00,17.7,6.5,30.53,NW,306,2.0,2.0,61,0.00,,,0.03,Wunderground v.1.15,2013-02-10 15:45:00,
2013-02-10 10:48:00,18.0,6.4,30.53,WNW,300,2.0,2.0,60,0.00,,,0.03,Wunderground v.1.15,2013-02-10 15:48:00,
2013-02-10 10:50:00,18.1,6.2,30.53,WNW,300,0.0,4.0,59,0.00,,,0.03,Wunderground v.1.15,2013-02-10 15:50:00,
2013-02-10 10:51:00,18.1,6.2,30.53,WNW,300,0.0,4.0,59,0.00,,,0.03,Wunderground v.1.15,2013-02-10 15:51:00,
2013-02-10 10:54:00,18.6,7.0,30.53,NW,321,1.0,2.0,60,0.00,,,0.03,Wunderground v.1.15,2013-02-10 15:54:00,
2013-02-10 10:56:00,18.9,6.9,30.53,NW,304,1.0,3.0,59,0.00,,,0.00,Wunderground v.1.15,2013-02-10 15:56:00,
2013-02-10 10:57:00,19.0,6.6,30.53,WNW,284,2.0,4.0,58,0.00,,,0.00,Wunderground v.1.15,2013-02-10 15:57:00,
2013-02-10 11:02:00,19.1,6.3,30.53,West,269,2.0,2.0,57,0.00,,,0.00,Wunderground v.1.15,2013-02-10 16:02:00,
2013-02-10 11:03:00,19.1,6.3,30.53,WNW,296,1.0,2.0,57,0.00,,,0.00,Wunderground v.1.15,2013-02-10 16:03:00,
2013-02-10 11:04:00,19.1,6.3,30.53,WNW,302,1.0,2.0,57,0.00,,,0.00,Wunderground v.1.15,2013-02-10 16:04:00,
2013-02-10 11:07:00,19.3,6.5,30.54,West,270,3.0,7.0,57,0.00,,,0.00,Wunderground v.1.15,2013-02-10 16:07:00,
2013-02-10 11:09:00,19.3,6.5,30.54,NNW,336,1.0,7.0,57,0.00,,,0.00,Wunderground v.1.15,2013-02-10 16:09:00,
2013-02-10 11:10:00,19.3,6.5,30.54,NW,304,1.0,7.0,57,0.00,,,0.00,Wunderground v.1.15,2013-02-10 16:10:00,
2013-02-10 11:13:00,19.6,6.8,30.54,West,269,1.0,2.0,57,0.00,,,0.00,Wunderground v.1.15,2013-02-10 16:13:00,
2013-02-10 11:14:00,19.8,7.0,30.53,West,281,2.0,2.0,57,0.00,,,0.00,Wunderground v.1.15,2013-02-10 16:14:00,
2013-02-10 11:16:00,19.9,6.7,30.53,WNW,283,2.0,4.0,56,0.00,,,0.00,Wunderground v.1.15,2013-02-10 16:16:00,
2013-02-10 11:18:00,19.9,6.3,30.53,WNW,299,2.0,4.0,55,0.00,,,0.00,Wunderground v.1.15,2013-02-10 16:18:00,
2013-02-10 11:21:00,20.1,6.9,30.53,WNW,300,3.0,4.0,56,0.00,,,0.00,Wunderground v.1.15,2013-02-10 16:21:00,
2013-02-10 11:22:00,20.2,7.0,30.53,West,277,2.0,2.0,56,0.00,,,0.00,Wunderground v.1.15,2013-02-10 16:22:00,
2013-02-10 11:26:00,20.2,6.2,30.53,NW,311,1.0,3.0,54,0.00,,,0.00,Wunderground v.1.15,2013-02-10 16:26:00,
2013-02-10 11:27:00,20.1,6.1,30.53,NW,311,1.0,3.0,54,0.00,,,0.00,Wunderground v.1.15,2013-02-10 16:27:00,
2013-02-10 11:28:00,20.2,6.2,30.52,NW,311,2.0,3.0,54,0.00,,,0.00,Wunderground v.1.15,2013-02-10 16:28:00,
2013-02-10 11:31:00,20.4,6.8,30.52,WNW,284,4.0,4.0,55,0.00,,,0.00,Wunderground v.1.15,2013-02-10 16:31:00,
2013-02-10 11:32:00,20.5,6.5,30.52,West,279,0.0,3.0,54,0.00,,,0.00,Wunderground v.1.15,2013-02-10 16:32:00,
2013-02-10 11:33:00,20.5,6.5,30.52,West,279,0.0,3.0,54,0.00,,,0.00,Wunderground v.1.15,2013-02-10 16:33:00,
2013-02-10 11:36:00,20.7,6.7,30.52,West,263,3.0,4.0,54,0.00,,,0.00,Wunderground v.1.15,2013-02-10 16:36:00,
2013-02-10 11:37:00,20.7,6.2,30.52,West,261,0.0,4.0,53,0.00,,,0.00,Wunderground v.1.15,2013-02-10 16:37:00,
2013-02-10 11:38:00,20.8,6.3,30.52,West,261,0.0,4.0,53,0.00,,,0.00,Wunderground v.1.15,2013-02-10 16:38:00,
2013-02-10 11:41:00,21.1,7.0,30.52,WNW,299,3.0,4.0,54,0.00,,,0.00,Wunderground v.1.15,2013-02-10 16:41:00,
2013-02-10 11:42:00,21.2,7.1,30.51,WNW,299,1.0,1.0,54,0.00,,,0.00,Wunderground v.1.15,2013-02-10 16:42:00,
2013-02-10 11:43:00,21.3,6.8,30.51,NW,317,1.0,3.0,53,0.00,,,0.00,Wunderground v.1.15,2013-02-10 16:43:00,
2013-02-10 11:46:00,21.7,7.2,30.51,NE,40,2.0,3.0,53,0.00,,,0.01,Wunderground v.1.15,2013-02-10 16:46:00,
2013-02-10 11:47:00,21.9,6.9,30.51,NE,40,0.0,3.0,52,0.00,,,0.01,Wunderground v.1.15,2013-02-10 16:47:00,
2013-02-10 11:49:00,22.1,7.6,30.50,West,259,0.0,3.0,53,0.00,,,0.01,Wunderground v.1.15,2013-02-10 16:49:00,
2013-02-10 11:51:00,22.1,6.7,30.50,West,259,2.0,3.0,51,0.00,,,0.01,Wunderground v.1.15,2013-02-10 16:51:00,
2013-02-10 11:54:00,22.1,6.7,30.50,WSW,240,1.0,3.0,51,0.00,,,0.01,Wunderground v.1.15,2013-02-10 16:54:00,
2013-02-10 11:55:00,22.1,6.7,30.50,NW,322,1.0,3.0,51,0.00,,,0.01,Wunderground v.1.15,2013-02-10 16:55:00,
2013-02-10 11:59:00,22.6,7.6,30.50,North,5,0.0,3.0,52,0.00,,,0.01,Wunderground v.1.15,2013-02-10 16:59:00,
2013-02-10 12:00:00,22.7,8.1,30.50,North,9,1.0,3.0,53,0.00,,,0.01,Wunderground v.1.15,2013-02-10 17:00:00,
2013-02-10 12:01:00,22.9,7.9,30.50,NW,313,1.0,3.0,52,0.00,,,0.01,Wunderground v.1.15,2013-02-10 17:01:00,
2013-02-10 12:04:00,23.3,7.8,30.50,NNW,339,2.0,4.0,51,0.00,,,0.01,Wunderground v.1.15,2013-02-10 17:04:00,
2013-02-10 12:06:00,23.4,7.5,30.50,NNE,16,3.0,4.0,50,0.00,,,0.01,Wunderground v.1.15,2013-02-10 17:06:00,
2013-02-10 12:08:00,23.6,7.7,30.50,NNE,16,0.0,4.0,50,0.00,,,0.01,Wunderground v.1.15,2013-02-10 17:08:00,
2013-02-10 12:11:00,24.1,8.6,30.49,NNE,16,1.0,4.0,51,0.00,,,0.01,Wunderground v.1.15,2013-02-10 17:11:00,
2013-02-10 12:12:00,24.3,8.3,30.49,NNE,24,3.0,3.0,50,0.00,,,0.01,Wunderground v.1.15,2013-02-10 17:12:00,
2013-02-10 12:13:00,24.3,7.9,30.49,NNE,32,1.0,3.0,49,0.00,,,0.01,Wunderground v.1.15,2013-02-10 17:13:00,
2013-02-10 12:16:00,24.3,7.9,30.49,WNW,287,3.0,3.0,49,0.00,,,0.01,Wunderground v.1.15,2013-02-10 17:16:00,
2013-02-10 12:17:00,24.2,7.8,30.49,WNW,284,3.0,4.0,49,0.00,,,0.01,Wunderground v.1.15,2013-02-10 17:17:00,
2013-02-10 12:18:00,24.0,7.1,30.49,WNW,284,0.0,4.0,48,0.00,,,0.01,Wunderground v.1.15,2013-02-10 17:18:00,
2013-02-10 12:19:00,23.9,7.0,30.49,WNW,291,3.0,4.0,48,0.00,,,0.01,Wunderground v.1.15,2013-02-10 17:19:00,
2013-02-10 12:22:00,23.5,6.7,30.48,WNW,290,3.0,3.0,48,0.00,,,0.01,Wunderground v.1.15,2013-02-10 17:22:00,
2013-02-10 12:23:00,23.4,6.6,30.48,WNW,288,2.0,3.0,48,0.00,,,0.01,Wunderground v.1.15,2013-02-10 17:23:00,
2013-02-10 12:24:00,23.3,6.5,30.48,WNW,286,1.0,4.0,48,0.00,,,0.01,Wunderground v.1.15,2013-02-10 17:24:00,
2013-02-10 12:25:00,23.4,6.6,30.48,NNE,19,3.0,4.0,48,0.00,,,0.01,Wunderground v.1.15,2013-02-10 17:25:00,
2013-02-10 12:28:00,23.8,7.8,30.48,NNE,21,1.0,4.0,50,0.00,,,0.01,Wunderground v.1.15,2013-02-10 17:28:00,
2013-02-10 12:29:00,24.2,8.2,30.48,WNW,286,4.0,5.0,50,0.00,,,0.01,Wunderground v.1.15,2013-02-10 17:29:00,
2013-02-10 12:31:00,24.3,7.9,30.48,WNW,297,0.0,5.0,49,0.00,,,0.01,Wunderground v.1.15,2013-02-10 17:31:00,
2013-02-10 12:33:00,24.5,8.0,30.48,NW,305,1.0,3.0,49,0.00,,,0.01,Wunderground v.1.15,2013-02-10 17:33:00,
2013-02-10 12:34:00,24.6,7.7,30.48,WNW,288,3.0,3.0,48,0.00,,,0.01,Wunderground v.1.15,2013-02-10 17:34:00,
2013-02-10 12:36:00,24.7,8.2,30.48,NW,308,2.0,4.0,49,0.00,,,0.01,Wunderground v.1.15,2013-02-10 17:36:00,
2013-02-10 12:38:00,25.0,8.5,30.47,WNW,285,4.0,4.0,49,0.00,,,0.01,Wunderground v.1.15,2013-02-10 17:38:00,
2013-02-10 12:40:00,25.0,8.0,30.47,NW,312,0.0,4.0,48,0.00,,,0.01,Wunderground v.1.15,2013-02-10 17:40:00,
2013-02-10 12:41:00,25.0,8.0,30.47,NW,312,0.0,4.0,48,0.00,,,0.01,Wunderground v.1.15,2013-02-10 17:41:00,
2013-02-10 12:44:00,25.5,9.0,30.47,WNW,302,2.0,3.0,49,0.00,,,0.01,Wunderground v.1.15,2013-02-10 17:44:00,
2013-02-10 12:45:00,25.6,8.6,30.47,NW,314,4.0,4.0,48,0.00,,,0.01,Wunderground v.1.15,2013-02-10 17:45:00,
2013-02-10 12:46:00,25.7,8.7,30.47,WNW,303,3.0,4.0,48,0.00,,,0.01,Wunderground v.1.15,2013-02-10 17:46:00,
2013-02-10 12:51:00,25.7,7.7,30.46,WSW,238,1.0,4.0,46,0.00,,,0.01,Wunderground v.1.15,2013-02-10 17:51:00,
2013-02-10 12:52:00,25.8,7.8,30.46,WNW,288,2.0,2.0,46,0.00,,,0.01,Wunderground v.1.15,2013-02-10 17:52:00,
2013-02-10 12:53:00,25.8,7.8,30.46,WNW,289,1.0,2.0,46,0.00,,,0.01,Wunderground v.1.15,2013-02-10 17:53:00,
2013-02-10 12:58:00,25.9,7.4,30.46,WNW,286,4.0,5.0,45,0.00,,,0.01,Wunderground v.1.15,2013-02-10 17:58:00,
2013-02-10 12:59:00,25.9,7.4,30.46,West,279,4.0,5.0,45,0.00,,,0.01,Wunderground v.1.15,2013-02-10 17:59:00,
2013-02-10 13:02:00,25.8,7.4,30.46,WNW,282,3.0,3.0,45,0.00,,,0.01,Wunderground v.1.15,2013-02-10 18:02:00,
2013-02-10 13:03:00,25.9,7.4,30.46,North,355,2.0,5.0,45,0.00,,,0.01,Wunderground v.1.15,2013-02-10 18:03:00,
2013-02-10 13:04:00,26.0,7.5,30.46,NNE,19,0.0,5.0,45,0.00,,,0.01,Wunderground v.1.15,2013-02-10 18:04:00,
2013-02-10 13:05:00,26.1,7.1,30.46,NNE,30,2.0,5.0,44,0.00,,,0.01,Wunderground v.1.15,2013-02-10 18:05:00,
2013-02-10 13:10:00,26.3,6.8,30.45,NW,316,3.0,5.0,43,0.00,,,0.01,Wunderground v.1.15,2013-02-10 18:10:00,
2013-02-10 13:13:00,26.5,6.5,30.45,NW,326,3.0,6.0,42,0.00,,,0.01,Wunderground v.1.15,2013-02-10 18:13:00,
2013-02-10 13:15:00,26.6,6.6,30.45,West,267,3.0,6.0,42,0.00,,,0.01,Wunderground v.1.15,2013-02-10 18:15:00,
2013-02-10 13:16:00,26.6,6.6,30.45,WNW,285,6.0,6.0,42,0.00,,,0.01,Wunderground v.1.15,2013-02-10 18:16:00,
2013-02-10 13:17:00,26.5,6.5,30.45,West,275,2.0,6.0,42,0.00,,,0.01,Wunderground v.1.15,2013-02-10 18:17:00,
2013-02-10 13:19:00,26.5,6.5,30.45,WNW,296,3.0,6.0,42,0.00,,,0.01,Wunderground v.1.15,2013-02-10 18:19:00,
2013-02-10 13:20:00,26.6,7.1,30.45,North,5,2.0,6.0,43,0.00,,,0.01,Wunderground v.1.15,2013-02-10 18:20:00,
2013-02-10 13:22:00,26.7,7.7,30.45,NW,313,3.0,3.0,44,0.00,,,0.01,Wunderground v.1.15,2013-02-10 18:22:00,
2013-02-10 13:26:00,26.7,6.6,30.45,WSW,238,2.0,5.0,42,0.00,,,0.01,Wunderground v.1.15,2013-02-10 18:26:00,
2013-02-10 13:27:00,26.6,6.6,30.45,WNW,302,3.0,5.0,42,0.00,,,0.01,Wunderground v.1.15,2013-02-10 18:27:00,
2013-02-10 13:29:00,26.5,6.5,30.45,WNW,286,2.0,5.0,42,0.00,,,0.01,Wunderground v.1.15,2013-02-10 18:29:00,
2013-02-10 13:31:00,26.5,6.5,30.45,WNW,283,1.0,5.0,42,0.00,,,0.01,Wunderground v.1.15,2013-02-10 18:31:00,
2013-02-10 13:32:00,26.6,6.6,30.44,WNW,283,1.0,3.0,42,0.00,,,0.01,Wunderground v.1.15,2013-02-10 18:32:00,
2013-02-10 13:33:00,26.6,6.6,30.44,WNW,295,2.0,3.0,42,0.00,,,0.01,Wunderground v.1.15,2013-02-10 18:33:00,
2013-02-10 13:36:00,26.5,5.9,30.44,North,11,2.0,5.0,41,0.00,,,0.01,Wunderground v.1.15,2013-02-10 18:36:00,
2013-02-10 13:37:00,26.5,6.5,30.44,NW,317,1.0,5.0,42,0.00,,,0.01,Wunderground v.1.15,2013-02-10 18:37:00,
2013-02-10 13:39:00,26.8,7.3,30.44,West,262,4.0,5.0,43,0.00,,,0.01,Wunderground v.1.15,2013-02-10 18:39:00,
2013-02-10 13:41:00,26.8,6.7,30.44,NNW,347,2.0,2.0,42,0.00,,,0.01,Wunderground v.1.15,2013-02-10 18:41:00,
2013-02-10 13:42:00,26.9,6.8,30.44,NNW,347,0.0,2.0,42,0.00,,,0.01,Wunderground v.1.15,2013-02-10 18:42:00,
2013-02-10 13:43:00,26.9,6.8,30.44,NW,319,1.0,2.0,42,0.00,,,0.01,Wunderground v.1.15,2013-02-10 18:43:00,
2013-02-10 13:45:00,27.1,7.0,30.44,North,355,0.0,4.0,42,0.00,,,0.01,Wunderground v.1.15,2013-02-10 18:45:00,
2013-02-10 13:47:00,27.4,6.8,30.43,NE,49,2.0,4.0,41,0.00,,,0.01,Wunderground v.1.15,2013-02-10 18:47:00,
2013-02-10 13:48:00,27.4,7.8,30.43,NNE,17,1.0,4.0,43,0.00,,,0.01,Wunderground v.1.15,2013-02-10 18:48:00,
2013-02-10 13:50:00,27.6,6.9,30.43,NE,38,3.0,4.0,41,0.00,,,0.01,Wunderground v.1.15,2013-02-10 18:50:00,
2013-02-10 13:53:00,27.7,7.0,30.43,NNE,19,0.0,3.0,41,0.00,,,0.01,Wunderground v.1.15,2013-02-10 18:53:00,
2013-02-10 13:54:00,27.8,7.1,30.43,NW,321,1.0,3.0,41,0.00,,,0.01,Wunderground v.1.15,2013-02-10 18:54:00,
2013-02-10 13:56:00,27.9,7.7,30.43,NNW,334,0.0,4.0,42,0.00,,,0.01,Wunderground v.1.15,2013-02-10 18:56:00,
2013-02-10 14:00:00,28.3,7.6,30.43,NNE,17,3.0,4.0,41,0.00,,,0.01,Wunderground v.1.15,2013-02-10 19:00:00,
2013-02-10 14:02:00,28.6,7.3,30.43,NW,315,2.0,2.0,40,0.00,,,0.01,Wunderground v.1.15,2013-02-10 19:02:00,
2013-02-10 14:05:00,28.8,6.9,30.43,NW,305,0.0,3.0,39,0.00,,,0.01,Wunderground v.1.15,2013-02-10 19:05:00,
2013-02-10 14:06:00,28.9,7.0,30.43,NW,305,0.0,3.0,39,0.00,,,0.01,Wunderground v.1.15,2013-02-10 19:06:00,
2013-02-10 14:07:00,29.0,7.7,30.43,NW,308,3.0,3.0,40,0.00,,,0.01,Wunderground v.1.15,2013-02-10 19:07:00,
2013-02-10 14:08:00,29.0,7.7,30.44,NNW,330,1.0,3.0,40,0.00,,,0.01,Wunderground v.1.15,2013-02-10 19:08:00,
2013-02-10 14:10:00,29.0,7.1,30.43,NW,321,2.0,3.0,39,0.00,,,0.01,Wunderground v.1.15,2013-02-10 19:10:00,
2013-02-10 14:11:00,29.0,7.1,30.43,NNE,13,3.0,3.0,39,0.00,,,0.01,Wunderground v.1.15,2013-02-10 19:11:00,
2013-02-10 14:13:00,28.9,7.6,30.44,WNW,298,2.0,2.0,40,0.00,,,0.01,Wunderground v.1.15,2013-02-10 19:13:00,
2013-02-10 14:15:00,28.8,7.5,30.44,WNW,288,2.0,4.0,40,0.00,,,0.01,Wunderground v.1.15,2013-02-10 19:15:00,
2013-02-10 14:16:00,28.7,6.8,30.44,West,273,3.0,4.0,39,0.00,,,0.01,Wunderground v.1.15,2013-02-10 19:16:00,
2013-02-10 14:18:00,28.5,6.6,30.44,West,273,2.0,4.0,39,0.00,,,0.01,Wunderground v.1.15,2013-02-10 19:18:00,
2013-02-10 14:20:00,28.1,6.8,30.44,West,273,4.0,4.0,40,0.00,,,0.01,Wunderground v.1.15,2013-02-10 19:20:00,
2013-02-10 14:21:00,28.0,6.8,30.44,WNW,294,2.0,5.0,40,0.00,,,0.01,Wunderground v.1.15,2013-02-10 19:21:00,
2013-02-10 14:23:00,27.8,6.6,30.44,WNW,283,5.0,6.0,40,0.00,,,0.01,Wunderground v.1.15,2013-02-10 19:23:00,
2013-02-10 14:25:00,27.1,5.9,30.44,WSW,247,3.0,7.0,40,0.00,,,0.01,Wunderground v.1.15,2013-02-10 19:25:00,
2013-02-10 14:28:00,26.9,5.8,30.45,WNW,288,3.0,7.0,40,0.00,,,0.01,Wunderground v.1.15,2013-02-10 19:28:00,
2013-02-10 14:31:00,26.8,6.2,30.45,WNW,286,2.0,7.0,41,0.00,,,0.01,Wunderground v.1.15,2013-02-10 19:31:00,
2013-02-10 14:33:00,26.9,6.3,30.44,WNW,302,2.0,3.0,41,0.00,,,0.01,Wunderground v.1.15,2013-02-10 19:33:00,
2013-02-10 14:35:00,27.1,6.5,30.44,West,264,4.0,5.0,41,0.00,,,0.01,Wunderground v.1.15,2013-02-10 19:35:00,
2013-02-10 14:36:00,27.1,5.9,30.44,West,281,1.0,5.0,40,0.00,,,0.01,Wunderground v.1.15,2013-02-10 19:36:00,
2013-02-10 14:39:00,27.2,6.0,30.44,WNW,296,3.0,5.0,40,0.00,,,0.01,Wunderground v.1.15,2013-02-10 19:39:00,
2013-02-10 14:41:00,27.3,6.1,30.44,WNW,295,1.0,5.0,40,0.00,,,0.01,Wunderground v.1.15,2013-02-10 19:41:00,
2013-02-10 14:42:00,27.3,6.1,30.44,WNW,294,2.0,2.0,40,0.00,,,0.01,Wunderground v.1.15,2013-02-10 19:42:00,
2013-02-10 14:45:00,27.5,6.3,30.44,West,277,0.0,3.0,40,0.00,,,0.01,Wunderground v.1.15,2013-02-10 19:45:00,
2013-02-10 14:47:00,27.8,6.6,30.44,West,275,1.0,3.0,40,0.00,,,0.01,Wunderground v.1.15,2013-02-10 19:47:00,
2013-02-10 14:48:00,27.9,6.7,30.44,West,275,0.0,3.0,40,0.00,,,0.01,Wunderground v.1.15,2013-02-10 19:48:00,
2013-02-10 14:52:00,28.3,6.5,30.44,WNW,300,0.0,1.0,39,0.00,,,0.01,Wunderground v.1.15,2013-02-10 19:52:00,
2013-02-10 14:53:00,28.3,7.0,30.44,WNW,284,3.0,3.0,40,0.00,,,0.01,Wunderground v.1.15,2013-02-10 19:53:00,
2013-02-10 14:54:00,28.3,7.0,30.44,WNW,284,4.0,4.0,40,0.00,,,0.01,Wunderground v.1.15,2013-02-10 19:54:00,
2013-02-10 14:58:00,28.2,6.4,30.45,NW,306,3.0,5.0,39,0.00,,,0.01,Wunderground v.1.15,2013-02-10 19:58:00,
2013-02-10 14:59:00,28.2,6.4,30.45,NW,306,1.0,5.0,39,0.00,,,0.01,Wunderground v.1.15,2013-02-10 19:59:00,
2013-02-10 15:00:00,28.2,5.8,30.45,WNW,284,3.0,5.0,38,0.00,,,0.01,Wunderground v.1.15,2013-02-10 20:00:00,
2013-02-10 15:04:00,28.0,5.6,30.46,West,279,3.0,3.0,38,0.00,,,0.01,Wunderground v.1.15,2013-02-10 20:04:00,
2013-02-10 15:05:00,28.0,6.2,30.46,NW,309,1.0,4.0,39,0.00,,,0.01,Wunderground v.1.15,2013-02-10 20:05:00,
2013-02-10 15:07:00,28.1,6.3,30.46,WNW,286,2.0,4.0,39,0.00,,,0.01,Wunderground v.1.15,2013-02-10 20:07:00,
2013-02-10 15:09:00,28.1,5.7,30.45,WNW,286,1.0,4.0,38,0.00,,,0.01,Wunderground v.1.15,2013-02-10 20:09:00,
2013-02-10 15:12:00,28.5,6.6,30.45,WNW,286,0.0,2.0,39,0.00,,,0.01,Wunderground v.1.15,2013-02-10 20:12:00,
2013-02-10 15:14:00,28.9,7.0,30.45,West,266,2.0,2.0,39,0.00,,,0.01,Wunderground v.1.15,2013-02-10 20:14:00,
2013-02-10 15:16:00,28.9,5.8,30.45,West,263,0.0,2.0,37,0.00,,,0.01,Wunderground v.1.15,2013-02-10 20:16:00,
2013-02-10 15:17:00,29.0,5.9,30.44,West,263,1.0,2.0,37,0.00,,,0.01,Wunderground v.1.15,2013-02-10 20:17:00,
2013-02-10 15:19:00,29.2,6.7,30.44,West,263,0.0,2.0,38,0.00,,,0.01,Wunderground v.1.15,2013-02-10 20:19:00,
2013-02-10 15:21:00,29.3,6.2,30.44,West,263,1.0,2.0,37,0.00,,,0.01,Wunderground v.1.15,2013-02-10 20:21:00,
2013-02-10 15:23:00,29.5,5.8,30.44,West,263,0.0,1.0,36,0.00,,,0.01,Wunderground v.1.15,2013-02-10 20:23:00,
2013-02-10 15:24:00,29.5,5.8,30.44,West,263,0.0,1.0,36,0.00,,,0.01,Wunderground v.1.15,2013-02-10 20:24:00,
2013-02-10 15:25:00,29.7,6.6,30.44,West,263,1.0,2.0,37,0.00,,,0.01,Wunderground v.1.15,2013-02-10 20:25:00,
2013-02-10 15:27:00,29.7,6.0,30.44,West,264,0.0,2.0,36,0.00,,,0.01,Wunderground v.1.15,2013-02-10 20:27:00,
2013-02-10 15:28:00,29.8,6.7,30.44,West,264,1.0,2.0,37,0.00,,,0.01,Wunderground v.1.15,2013-02-10 20:28:00,
2013-02-10 15:30:00,29.8,6.1,30.43,West,264,0.0,2.0,36,0.00,,,0.01,Wunderground v.1.15,2013-02-10 20:30:00,
2013-02-10 15:33:00,29.8,6.1,30.43,West,264,0.0,1.0,36,0.00,,,0.01,Wunderground v.1.15,2013-02-10 20:33:00,
2013-02-10 15:36:00,29.9,6.7,30.43,West,264,0.0,1.0,37,0.00,,,0.01,Wunderground v.1.15,2013-02-10 20:36:00,
2013-02-10 15:37:00,29.9,6.7,30.43,West,264,0.0,1.0,37,0.00,,,0.01,Wunderground v.1.15,2013-02-10 20:37:00,
2013-02-10 15:38:00,29.9,6.1,30.43,West,264,0.0,1.0,36,0.00,,,0.01,Wunderground v.1.15,2013-02-10 20:38:00,
2013-02-10 15:39:00,29.9,6.1,30.43,West,264,1.0,1.0,36,0.00,,,0.01,Wunderground v.1.15,2013-02-10 20:39:00,
2013-02-10 15:41:00,29.9,6.1,30.43,West,264,1.0,2.0,36,0.00,,,0.01,Wunderground v.1.15,2013-02-10 20:41:00,
2013-02-10 15:42:00,29.9,6.1,30.43,West,264,1.0,1.0,36,0.00,,,0.01,Wunderground v.1.15,2013-02-10 20:42:00,
2013-02-10 15:44:00,29.9,6.7,30.43,West,264,2.0,2.0,37,0.00,,,0.01,Wunderground v.1.15,2013-02-10 20:44:00,
2013-02-10 15:45:00,29.9,6.7,30.43,West,264,2.0,2.0,37,0.00,,,0.01,Wunderground v.1.15,2013-02-10 20:45:00,
2013-02-10 15:48:00,29.9,6.1,30.42,West,264,2.0,2.0,36,0.00,,,0.01,Wunderground v.1.15,2013-02-10 20:48:00,
2013-02-10 15:50:00,29.8,6.1,30.42,West,264,0.0,2.0,36,0.00,,,0.02,Wunderground v.1.15,2013-02-10 20:50:00,
2013-02-10 15:54:00,29.9,5.5,30.42,West,264,0.0,1.0,35,0.00,,,0.02,Wunderground v.1.15,2013-02-10 20:54:00,
2013-02-10 15:55:00,29.9,6.1,30.42,West,264,0.0,1.0,36,0.00,,,0.02,Wunderground v.1.15,2013-02-10 20:55:00,
2013-02-10 15:56:00,29.9,6.1,30.42,West,264,2.0,3.0,36,0.00,,,0.02,Wunderground v.1.15,2013-02-10 20:56:00,
2013-02-10 15:57:00,29.8,6.1,30.42,West,264,1.0,3.0,36,0.00,,,0.02,Wunderground v.1.15,2013-02-10 20:57:00,
2013-02-10 16:01:00,29.7,6.0,30.41,West,264,0.0,3.0,36,0.00,,,0.02,Wunderground v.1.15,2013-02-10 21:01:00,
2013-02-10 16:03:00,29.7,6.0,30.41,West,264,0.0,1.0,36,0.00,,,0.02,Wunderground v.1.15,2013-02-10 21:03:00,
2013-02-10 16:04:00,29.6,5.9,30.41,West,264,0.0,1.0,36,0.00,,,0.02,Wunderground v.1.15,2013-02-10 21:04:00,
2013-02-10 16:07:00,29.1,6.0,30.41,West,264,0.0,2.0,37,0.00,,,0.02,Wunderground v.1.15,2013-02-10 21:07:00,
2013-02-10 16:08:00,28.9,5.8,30.41,West,264,0.0,2.0,37,0.00,,,0.02,Wunderground v.1.15,2013-02-10 21:08:00,
2013-02-10 16:10:00,28.6,5.6,30.42,WNW,286,2.0,2.0,37,0.00,,,0.02,Wunderground v.1.15,2013-02-10 21:10:00,
2013-02-10 16:12:00,28.2,5.2,30.42,West,264,0.0,2.0,37,0.00,,,0.02,Wunderground v.1.15,2013-02-10 21:12:00,
2013-02-10 16:14:00,28.0,5.6,30.42,West,264,1.0,2.0,38,0.00,,,0.02,Wunderground v.1.15,2013-02-10 21:14:00,
2013-02-10 16:15:00,27.8,6.0,30.42,West,264,0.0,2.0,39,0.00,,,0.02,Wunderground v.1.15,2013-02-10 21:15:00,
2013-02-10 16:17:00,27.5,5.7,30.42,West,264,0.0,2.0,39,0.00,,,0.02,Wunderground v.1.15,2013-02-10 21:17:00,
2013-02-10 16:18:00,27.4,5.7,30.42,West,264,1.0,2.0,39,0.00,,,0.02,Wunderground v.1.15,2013-02-10 21:18:00,
2013-02-10 16:19:00,27.4,5.7,30.42,West,264,0.0,2.0,39,0.00,,,0.02,Wunderground v.1.15,2013-02-10 21:19:00,
2013-02-10 16:20:00,27.2,6.0,30.42,West,264,0.0,2.0,40,0.00,,,0.02,Wunderground v.1.15,2013-02-10 21:20:00,
2013-02-10 16:23:00,27.0,5.8,30.41,West,264,0.0,0.0,40,0.00,,,0.02,Wunderground v.1.15,2013-02-10 21:23:00,
2013-02-10 16:24:00,27.0,6.4,30.41,West,264,0.0,0.0,41,0.00,,,0.02,Wunderground v.1.15,2013-02-10 21:24:00,
2013-02-10 16:27:00,26.9,6.8,30.41,West,264,0.0,0.0,42,0.00,,,0.02,Wunderground v.1.15,2013-02-10 21:27:00,
2013-02-10 16:28:00,26.8,6.7,30.41,West,264,0.0,0.0,42,0.00,,,0.02,Wunderground v.1.15,2013-02-10 21:28:00,
2013-02-10 16:29:00,26.7,6.6,30.41,West,264,0.0,0.0,42,0.00,,,0.02,Wunderground v.1.15,2013-02-10 21:29:00,
2013-02-10 16:31:00,26.7,6.6,30.41,West,264,0.0,0.0,42,0.00,,,0.02,Wunderground v.1.15,2013-02-10 21:31:00,
2013-02-10 16:34:00,26.6,6.6,30.41,West,264,0.0,0.0,42,0.00,,,0.02,Wunderground v.1.15,2013-02-10 21:34:00,
2013-02-10 16:35:00,26.5,5.9,30.41,West,264,0.0,0.0,41,0.00,,,0.02,Wunderground v.1.15,2013-02-10 21:35:00,
2013-02-10 16:36:00,26.5,5.9,30.41,West,264,0.0,0.0,41,0.00,,,0.02,Wunderground v.1.15,2013-02-10 21:36:00,
2013-02-10 16:40:00,26.3,6.8,30.41,West,264,0.0,0.0,43,0.00,,,0.02,Wunderground v.1.15,2013-02-10 21:40:00,
2013-02-10 16:41:00,26.3,6.8,30.41,West,264,0.0,0.0,43,0.00,,,0.02,Wunderground v.1.15,2013-02-10 21:41:00,
2013-02-10 16:42:00,26.2,6.7,30.41,West,264,0.0,0.0,43,0.00,,,0.02,Wunderground v.1.15,2013-02-10 21:42:00,
2013-02-10 16:47:00,25.9,7.4,30.40,West,264,0.0,0.0,45,0.00,,,0.02,Wunderground v.1.15,2013-02-10 21:47:00,
2013-02-10 16:48:00,25.8,7.8,30.40,West,264,0.0,0.0,46,0.00,,,0.02,Wunderground v.1.15,2013-02-10 21:48:00,
2013-02-10 16:51:00,25.6,8.6,30.40,West,264,0.0,0.0,48,0.00,,,0.02,Wunderground v.1.15,2013-02-10 21:51:00,
2013-02-10 16:52:00,25.4,8.9,30.40,West,264,0.0,0.0,49,0.00,,,0.02,Wunderground v.1.15,2013-02-10 21:52:00,
2013-02-10 16:56:00,25.1,9.5,30.40,West,264,0.0,0.0,51,0.00,,,0.02,Wunderground v.1.15,2013-02-10 21:56:00,
2013-02-10 16:57:00,24.9,9.7,30.40,West,264,0.0,0.0,52,0.00,,,0.02,Wunderground v.1.15,2013-02-10 21:57:00,
2013-02-10 16:59:00,24.7,10.0,30.40,West,264,0.0,0.0,53,0.00,,,0.02,Wunderground v.1.15,2013-02-10 21:59:00,
2013-02-10 17:01:00,24.5,10.2,30.40,West,263,0.0,0.0,54,0.00,,,0.02,Wunderground v.1.15,2013-02-10 22:01:00,
2013-02-10 17:03:00,24.4,9.3,30.40,West,264,0.0,0.0,52,0.00,,,0.02,Wunderground v.1.15,2013-02-10 22:03:00,
2013-02-10 17:07:00,24.1,9.0,30.40,West,264,0.0,0.0,52,0.00,,,0.02,Wunderground v.1.15,2013-02-10 22:07:00,
2013-02-10 17:08:00,24.0,9.3,30.40,West,264,0.0,0.0,53,0.00,,,0.02,Wunderground v.1.15,2013-02-10 22:08:00,
2013-02-10 17:10:00,23.9,9.6,30.40,West,264,0.0,0.0,54,0.00,,,0.02,Wunderground v.1.15,2013-02-10 22:10:00,
2013-02-10 17:12:00,23.7,9.5,30.41,West,264,0.0,0.0,54,0.00,,,0.02,Wunderground v.1.15,2013-02-10 22:12:00,
2013-02-10 17:13:00,23.6,9.4,30.41,West,264,0.0,0.0,54,0.00,,,0.02,Wunderground v.1.15,2013-02-10 22:13:00,
2013-02-10 17:15:00,23.4,9.2,30.41,West,264,0.0,0.0,54,0.00,,,0.02,Wunderground v.1.15,2013-02-10 22:15:00,
2013-02-10 17:18:00,23.0,8.8,30.41,West,264,0.0,0.0,54,0.00,,,0.02,Wunderground v.1.15,2013-02-10 22:18:00,
2013-02-10 17:20:00,22.8,8.6,30.41,West,264,0.0,0.0,54,0.00,,,0.02,Wunderground v.1.15,2013-02-10 22:20:00,
2013-02-10 17:21:00,22.8,8.6,30.41,West,264,0.0,0.0,54,0.00,,,0.02,Wunderground v.1.15,2013-02-10 22:21:00,
2013-02-10 17:24:00,22.5,8.3,30.42,West,263,0.0,0.0,54,0.00,,,0.02,Wunderground v.1.15,2013-02-10 22:24:00,
2013-02-10 17:26:00,22.4,8.7,30.42,West,264,0.0,0.0,55,0.00,,,0.02,Wunderground v.1.15,2013-02-10 22:26:00,
2013-02-10 17:27:00,22.4,8.7,30.42,West,264,0.0,0.0,55,0.00,,,0.02,Wunderground v.1.15,2013-02-10 22:27:00,
2013-02-10 17:30:00,22.0,8.7,30.42,West,264,0.0,0.0,56,0.00,,,0.02,Wunderground v.1.15,2013-02-10 22:30:00,
2013-02-10 17:31:00,21.8,8.5,30.42,West,264,0.0,0.0,56,0.00,,,0.02,Wunderground v.1.15,2013-02-10 22:31:00,
2013-02-10 17:33:00,21.6,8.7,30.42,West,264,0.0,0.0,57,0.00,,,0.02,Wunderground v.1.15,2013-02-10 22:33:00,
2013-02-10 17:34:00,21.5,8.2,30.42,West,264,0.0,0.0,56,0.00,,,0.02,Wunderground v.1.15,2013-02-10 22:34:00,
2013-02-10 17:36:00,21.3,8.0,30.42,West,264,0.0,0.0,56,0.00,,,0.02,Wunderground v.1.15,2013-02-10 22:36:00,
2013-02-10 17:38:00,21.1,8.2,30.42,West,264,0.0,0.0,57,0.00,,,0.02,Wunderground v.1.15,2013-02-10 22:38:00,
2013-02-10 17:39:00,21.0,8.1,30.42,West,264,0.0,0.0,57,0.00,,,0.02,Wunderground v.1.15,2013-02-10 22:39:00,
2013-02-10 17:40:00,20.9,8.0,30.42,West,264,0.0,0.0,57,0.00,,,0.02,Wunderground v.1.15,2013-02-10 22:40:00,
2013-02-10 17:41:00,20.8,7.6,30.42,West,264,0.0,0.0,56,0.00,,,0.02,Wunderground v.1.15,2013-02-10 22:41:00,
2013-02-10 17:43:00,20.7,7.5,30.42,West,264,0.0,0.0,56,0.00,,,0.02,Wunderground v.1.15,2013-02-10 22:43:00,
2013-02-10 17:45:00,20.5,7.3,30.42,West,264,0.0,0.0,56,0.00,,,0.02,Wunderground v.1.15,2013-02-10 22:45:00,
2013-02-10 17:46:00,20.5,6.9,30.42,West,264,0.0,0.0,55,0.00,,,0.02,Wunderground v.1.15,2013-02-10 22:46:00,
2013-02-10 17:48:00,20.3,6.3,30.42,West,264,0.0,0.0,54,0.00,,,0.02,Wunderground v.1.15,2013-02-10 22:48:00,
2013-02-10 17:51:00,20.2,6.2,30.42,West,264,0.0,0.0,54,0.00,,,0.02,Wunderground v.1.15,2013-02-10 22:51:00,
2013-02-10 17:52:00,20.2,6.2,30.42,West,263,0.0,0.0,54,0.00,,,0.02,Wunderground v.1.15,2013-02-10 22:52:00,
2013-02-10 17:57:00,20.0,6.0,30.41,West,263,0.0,0.0,54,0.00,,,0.02,Wunderground v.1.15,2013-02-10 22:57:00,
2013-02-10 17:58:00,19.8,5.8,30.41,West,263,0.0,0.0,54,0.00,,,0.02,Wunderground v.1.15,2013-02-10 22:58:00,
2013-02-10 18:02:00,19.5,5.5,30.41,West,264,0.0,0.0,54,0.00,,,0.02,Wunderground v.1.15,2013-02-10 23:02:00,
2013-02-10 18:03:00,19.5,5.5,30.41,West,263,0.0,0.0,54,0.00,,,0.02,Wunderground v.1.15,2013-02-10 23:03:00,
2013-02-10 18:04:00,19.4,5.8,30.41,West,264,0.0,0.0,55,0.00,,,0.02,Wunderground v.1.15,2013-02-10 23:04:00,
2013-02-10 18:08:00,19.2,6.1,30.41,West,264,0.0,0.0,56,0.00,,,0.02,Wunderground v.1.15,2013-02-10 23:08:00,
2013-02-10 18:09:00,19.1,6.0,30.41,West,264,0.0,0.0,56,0.00,,,0.02,Wunderground v.1.15,2013-02-10 23:09:00,
2013-02-10 18:11:00,19.1,6.0,30.41,West,264,0.0,0.0,56,0.00,,,0.02,Wunderground v.1.15,2013-02-10 23:11:00,
2013-02-10 18:13:00,18.9,6.2,30.42,West,264,0.0,0.0,57,0.00,,,0.02,Wunderground v.1.15,2013-02-10 23:13:00,
2013-02-10 18:14:00,18.8,6.1,30.41,West,263,0.0,0.0,57,0.00,,,0.02,Wunderground v.1.15,2013-02-10 23:14:00,
2013-02-10 18:16:00,18.7,6.0,30.41,West,263,0.0,0.0,57,0.00,,,0.02,Wunderground v.1.15,2013-02-10 23:16:00,
2013-02-10 18:19:00,18.6,6.3,30.40,West,264,0.0,0.0,58,0.00,,,0.02,Wunderground v.1.15,2013-02-10 23:19:00,
2013-02-10 18:20:00,18.6,6.3,30.40,West,263,0.0,0.0,58,0.00,,,0.02,Wunderground v.1.15,2013-02-10 23:20:00,
2013-02-10 18:21:00,18.6,6.6,30.40,West,263,0.0,0.0,59,0.00,,,0.02,Wunderground v.1.15,2013-02-10 23:21:00,
2013-02-10 18:22:00,18.5,6.5,30.40,West,263,0.0,0.0,59,0.00,,,0.02,Wunderground v.1.15,2013-02-10 23:22:00,
2013-02-10 18:25:00,18.4,6.4,30.40,West,263,0.0,0.0,59,0.00,,,0.02,Wunderground v.1.15,2013-02-10 23:25:00,
2013-02-10 18:26:00,18.4,6.4,30.40,West,263,0.0,0.0,59,0.00,,,0.02,Wunderground v.1.15,2013-02-10 23:26:00,
2013-02-10 18:28:00,18.5,6.5,30.40,West,263,0.0,0.0,59,0.00,,,0.02,Wunderground v.1.15,2013-02-10 23:28:00,
2013-02-10 18:31:00,18.5,6.5,30.40,SW,217,1.0,1.0,59,0.00,,,0.02,Wunderground v.1.15,2013-02-10 23:31:00,
2013-02-10 18:32:00,18.6,6.6,30.40,SW,217,0.0,0.0,59,0.00,,,0.02,Wunderground v.1.15,2013-02-10 23:32:00,
2013-02-10 18:33:00,18.6,6.6,30.40,SW,217,0.0,0.0,59,0.00,,,0.02,Wunderground v.1.15,2013-02-10 23:33:00,
2013-02-10 18:35:00,18.6,6.6,30.40,SW,217,0.0,0.0,59,0.00,,,0.02,Wunderground v.1.15,2013-02-10 23:35:00,
2013-02-10 18:36:00,18.6,6.6,30.40,SW,217,0.0,0.0,59,0.00,,,0.02,Wunderground v.1.15,2013-02-10 23:36:00,
2013-02-10 18:38:00,18.5,6.9,30.40,SW,217,0.0,0.0,60,0.00,,,0.02,Wunderground v.1.15,2013-02-10 23:38:00,
2013-02-10 18:41:00,18.3,7.1,30.40,SW,217,0.0,0.0,61,0.00,,,0.02,Wunderground v.1.15,2013-02-10 23:41:00,
2013-02-10 18:42:00,18.2,7.0,30.40,SW,217,0.0,0.0,61,0.00,,,0.02,Wunderground v.1.15,2013-02-10 23:42:00,
2013-02-10 18:44:00,18.1,6.9,30.40,SW,217,0.0,0.0,61,0.00,,,0.02,Wunderground v.1.15,2013-02-10 23:44:00,
2013-02-10 18:47:00,17.8,6.6,30.41,SW,217,0.0,0.0,61,0.00,,,0.02,Wunderground v.1.15,2013-02-10 23:47:00,
2013-02-10 18:48:00,17.7,6.5,30.41,SW,217,0.0,0.0,61,0.00,,,0.02,Wunderground v.1.15,2013-02-10 23:48:00,
2013-02-10 18:50:00,17.6,6.8,30.41,SW,217,0.0,0.0,62,0.00,,,0.02,Wunderground v.1.15,2013-02-10 23:50:00,
2013-02-10 18:52:00,17.5,6.7,30.40,SW,217,0.0,0.0,62,0.00,,,0.02,Wunderground v.1.15,2013-02-10 23:52:00,
2013-02-10 18:55:00,17.4,6.9,30.40,SW,217,0.0,0.0,63,0.00,,,0.02,Wunderground v.1.15,2013-02-10 23:55:00,
2013-02-10 18:56:00,17.4,6.9,30.40,SW,217,0.0,0.0,63,0.00,,,0.02,Wunderground v.1.15,2013-02-10 23:56:00,
2013-02-10 18:57:00,17.3,6.8,30.40,SW,217,0.0,0.0,63,0.00,,,0.02,Wunderground v.1.15,2013-02-10 23:57:00,
2013-02-10 19:00:00,17.1,7.0,30.40,SW,217,0.0,0.0,64,0.00,,,0.02,Wunderground v.1.15,2013-02-11 00:00:00,
2013-02-10 19:01:00,17.1,7.0,30.40,SW,217,0.0,0.0,64,0.00,,,0.02,Wunderground v.1.15,2013-02-11 00:01:00,
2013-02-10 19:03:00,16.9,6.8,30.40,SW,217,0.0,0.0,64,0.00,,,0.02,Wunderground v.1.15,2013-02-11 00:03:00,
2013-02-10 19:04:00,16.9,6.8,30.40,SW,217,0.0,0.0,64,0.00,,,0.02,Wunderground v.1.15,2013-02-11 00:04:00,
2013-02-10 19:06:00,16.8,7.1,30.40,SW,217,0.0,0.0,65,0.00,,,0.02,Wunderground v.1.15,2013-02-11 00:06:00,
2013-02-10 19:10:00,16.7,7.3,30.40,SW,217,0.0,0.0,66,0.00,,,0.02,Wunderground v.1.15,2013-02-11 00:10:00,
2013-02-10 19:11:00,16.7,7.3,30.40,SW,217,0.0,0.0,66,0.00,,,0.02,Wunderground v.1.15,2013-02-11 00:11:00,
2013-02-10 19:13:00,16.5,7.1,30.39,SW,217,0.0,0.0,66,0.00,,,0.02,Wunderground v.1.15,2013-02-11 00:13:00,
2013-02-10 19:16:00,16.4,7.3,30.39,SW,217,0.0,0.0,67,0.00,,,0.02,Wunderground v.1.15,2013-02-11 00:16:00,
2013-02-10 19:17:00,16.4,7.3,30.39,SW,217,0.0,0.0,67,0.00,,,0.02,Wunderground v.1.15,2013-02-11 00:17:00,
2013-02-10 19:18:00,16.4,7.3,30.39,SSW,211,0.0,0.0,67,0.00,,,0.02,Wunderground v.1.15,2013-02-11 00:18:00,
2013-02-10 19:19:00,16.4,7.3,30.39,SSW,206,0.0,0.0,67,0.00,,,0.02,Wunderground v.1.15,2013-02-11 00:19:00,
2013-02-10 19:21:00,16.3,7.3,30.39,SSW,206,0.0,0.0,67,0.00,,,0.02,Wunderground v.1.15,2013-02-11 00:21:00,
2013-02-10 19:23:00,16.2,7.2,30.39,SSW,206,0.0,0.0,67,0.00,,,0.02,Wunderground v.1.15,2013-02-11 00:23:00,
2013-02-10 19:25:00,16.2,7.2,30.39,SSW,206,0.0,0.0,67,0.00,,,0.02,Wunderground v.1.15,2013-02-11 00:25:00,
2013-02-10 19:26:00,16.2,7.2,30.39,SSW,206,0.0,0.0,67,0.00,,,0.02,Wunderground v.1.15,2013-02-11 00:26:00,
2013-02-10 19:27:00,16.1,7.1,30.39,SSW,206,0.0,0.0,67,0.00,,,0.02,Wunderground v.1.15,2013-02-11 00:27:00,
2013-02-10 19:30:00,15.9,7.2,30.39,SSW,206,0.0,0.0,68,0.00,,,0.02,Wunderground v.1.15,2013-02-11 00:30:00,
2013-02-10 19:32:00,15.8,7.4,30.39,SSW,206,0.0,0.0,69,0.00,,,0.02,Wunderground v.1.15,2013-02-11 00:32:00,
2013-02-10 19:33:00,15.8,7.4,30.39,SSW,206,0.0,0.0,69,0.00,,,0.02,Wunderground v.1.15,2013-02-11 00:33:00,
2013-02-10 19:37:00,15.7,7.3,30.39,SSW,206,0.0,0.0,69,0.00,,,0.02,Wunderground v.1.15,2013-02-11 00:37:00,
2013-02-10 19:38:00,15.6,7.2,30.39,SSW,206,0.0,0.0,69,0.00,,,0.02,Wunderground v.1.15,2013-02-11 00:38:00,
2013-02-10 19:40:00,15.6,7.2,30.39,SSW,206,0.0,0.0,69,0.00,,,0.02,Wunderground v.1.15,2013-02-11 00:40:00,
2013-02-10 19:43:00,15.5,7.1,30.39,SSW,206,0.0,0.0,69,0.00,,,0.02,Wunderground v.1.15,2013-02-11 00:43:00,
2013-02-10 19:44:00,15.4,7.0,30.39,SSW,206,0.0,0.0,69,0.00,,,0.02,Wunderground v.1.15,2013-02-11 00:44:00,
2013-02-10 19:47:00,15.3,6.9,30.39,SSW,206,0.0,0.0,69,0.00,,,0.02,Wunderground v.1.15,2013-02-11 00:47:00,
2013-02-10 19:49:00,15.2,7.2,30.39,SSW,206,0.0,0.0,70,0.00,,,0.02,Wunderground v.1.15,2013-02-11 00:49:00,
2013-02-10 19:50:00,15.2,7.2,30.39,SSW,206,0.0,0.0,70,0.00,,,0.02,Wunderground v.1.15,2013-02-11 00:50:00,
2013-02-10 19:53:00,15.0,7.3,30.39,SSW,206,0.0,0.0,71,0.00,,,0.02,Wunderground v.1.15,2013-02-11 00:53:00,
2013-02-10 19:54:00,15.0,7.3,30.39,SSW,206,0.0,0.0,71,0.00,,,0.02,Wunderground v.1.15,2013-02-11 00:54:00,
2013-02-10 19:55:00,15.0,7.3,30.39,SSW,206,0.0,0.0,71,0.00,,,0.02,Wunderground v.1.15,2013-02-11 00:55:00,
2013-02-10 19:56:00,15.0,7.3,30.39,SSW,206,0.0,0.0,71,0.00,,,0.02,Wunderground v.1.15,2013-02-11 00:56:00,
2013-02-10 19:59:00,14.9,7.2,30.39,SSW,206,0.0,0.0,71,0.00,,,0.02,Wunderground v.1.15,2013-02-11 00:59:00,
2013-02-10 20:00:00,15.0,7.3,30.39,SSW,206,0.0,0.0,71,0.00,,,0.02,Wunderground v.1.15,2013-02-11 01:00:00,
2013-02-10 20:01:00,15.0,7.3,30.39,SSW,206,0.0,0.0,71,0.00,,,0.02,Wunderground v.1.15,2013-02-11 01:01:00,
2013-02-10 20:04:00,15.1,7.4,30.39,SSW,206,0.0,0.0,71,0.00,,,0.02,Wunderground v.1.15,2013-02-11 01:04:00,
2013-02-10 20:06:00,15.0,7.0,30.39,SSW,206,0.0,0.0,70,0.00,,,0.02,Wunderground v.1.15,2013-02-11 01:06:00,
2013-02-10 20:07:00,15.0,7.0,30.39,SSW,206,0.0,0.0,70,0.00,,,0.02,Wunderground v.1.15,2013-02-11 01:07:00,
2013-02-10 20:09:00,15.0,7.3,30.39,SSW,206,0.0,0.0,71,0.00,,,0.02,Wunderground v.1.15,2013-02-11 01:09:00,
2013-02-10 20:11:00,15.2,7.5,30.38,SSW,206,0.0,0.0,71,0.00,,,0.02,Wunderground v.1.15,2013-02-11 01:11:00,
2013-02-10 20:12:00,15.3,7.6,30.38,SSW,206,0.0,0.0,71,0.00,,,0.02,Wunderground v.1.15,2013-02-11 01:12:00,
2013-02-10 20:14:00,15.3,7.3,30.38,SSW,206,0.0,0.0,70,0.00,,,0.02,Wunderground v.1.15,2013-02-11 01:14:00,
2013-02-10 20:16:00,15.2,7.2,30.39,SSW,206,0.0,0.0,70,0.00,,,0.02,Wunderground v.1.15,2013-02-11 01:16:00,
2013-02-10 20:18:00,15.2,7.2,30.39,SSW,206,0.0,0.0,70,0.00,,,0.02,Wunderground v.1.15,2013-02-11 01:18:00,
2013-02-10 20:19:00,15.1,7.1,30.39,SSW,206,0.0,0.0,70,0.00,,,0.02,Wunderground v.1.15,2013-02-11 01:19:00,
2013-02-10 20:20:00,15.1,7.1,30.39,SSW,206,0.0,0.0,70,0.00,,,0.02,Wunderground v.1.15,2013-02-11 01:20:00,
2013-02-10 20:22:00,15.0,6.7,30.39,SSW,206,0.0,0.0,69,0.00,,,0.02,Wunderground v.1.15,2013-02-11 01:22:00,
2013-02-10 20:23:00,14.9,6.6,30.39,SSW,206,0.0,0.0,69,0.00,,,0.02,Wunderground v.1.15,2013-02-11 01:23:00,
2013-02-10 20:25:00,14.9,6.6,30.38,SSW,206,0.0,0.0,69,0.00,,,0.02,Wunderground v.1.15,2013-02-11 01:25:00,
2013-02-10 20:26:00,14.8,6.5,30.38,SSW,206,0.0,0.0,69,0.00,,,0.02,Wunderground v.1.15,2013-02-11 01:26:00,
2013-02-10 20:27:00,14.8,6.5,30.38,SSW,206,0.0,0.0,69,0.00,,,0.02,Wunderground v.1.15,2013-02-11 01:27:00,
2013-02-10 20:30:00,14.8,6.5,30.38,SSW,206,0.0,0.0,69,0.00,,,0.02,Wunderground v.1.15,2013-02-11 01:30:00,
2013-02-10 20:32:00,14.8,6.5,30.38,SSW,206,0.0,0.0,69,0.00,,,0.02,Wunderground v.1.15,2013-02-11 01:32:00,
2013-02-10 20:33:00,14.8,6.5,30.38,SSW,206,0.0,0.0,69,0.00,,,0.02,Wunderground v.1.15,2013-02-11 01:33:00,
2013-02-10 20:35:00,14.8,6.1,30.38,SSW,206,0.0,0.0,68,0.00,,,0.02,Wunderground v.1.15,2013-02-11 01:35:00,
2013-02-10 20:37:00,14.7,6.0,30.38,SSW,206,0.0,0.0,68,0.00,,,0.02,Wunderground v.1.15,2013-02-11 01:37:00,
2013-02-10 20:38:00,14.7,6.0,30.38,SSW,206,0.0,0.0,68,0.00,,,0.02,Wunderground v.1.15,2013-02-11 01:38:00,
2013-02-10 20:39:00,14.7,6.0,30.37,SSW,206,0.0,0.0,68,0.00,,,0.02,Wunderground v.1.15,2013-02-11 01:39:00,
2013-02-10 20:40:00,14.7,6.0,30.37,SSW,206,0.0,0.0,68,0.00,,,0.02,Wunderground v.1.15,2013-02-11 01:40:00,
2013-02-10 20:43:00,14.7,6.0,30.37,SSW,206,0.0,0.0,68,0.00,,,0.02,Wunderground v.1.15,2013-02-11 01:43:00,
2013-02-10 20:44:00,14.7,6.4,30.38,SSW,206,0.0,0.0,69,0.00,,,0.02,Wunderground v.1.15,2013-02-11 01:44:00,
2013-02-10 20:45:00,14.7,6.4,30.37,SSW,206,0.0,1.0,69,0.00,,,0.02,Wunderground v.1.15,2013-02-11 01:45:00,
2013-02-10 20:46:00,14.7,6.7,30.38,SSW,206,0.0,1.0,70,0.00,,,0.02,Wunderground v.1.15,2013-02-11 01:46:00,
2013-02-10 20:49:00,14.7,6.7,30.38,SSW,206,0.0,1.0,70,0.00,,,0.02,Wunderground v.1.15,2013-02-11 01:49:00,
2013-02-10 20:50:00,14.8,6.8,30.37,SSW,206,0.0,1.0,70,0.00,,,0.02,Wunderground v.1.15,2013-02-11 01:50:00,
2013-02-10 20:51:00,14.8,6.5,30.37,SSW,206,0.0,1.0,69,0.00,,,0.02,Wunderground v.1.15,2013-02-11 01:51:00,
2013-02-10 20:53:00,14.8,6.1,30.38,SSW,206,0.0,0.0,68,0.00,,,0.02,Wunderground v.1.15,2013-02-11 01:53:00,
2013-02-10 20:55:00,14.9,5.9,30.38,SSW,206,0.0,0.0,67,0.00,,,0.02,Wunderground v.1.15,2013-02-11 01:55:00,
2013-02-10 20:56:00,14.9,5.9,30.38,SSW,206,0.0,0.0,67,0.00,,,0.02,Wunderground v.1.15,2013-02-11 01:56:00,
2013-02-10 20:57:00,14.9,5.6,30.38,SSW,206,0.0,0.0,66,0.00,,,0.02,Wunderground v.1.15,2013-02-11 01:57:00,
2013-02-10 20:59:00,15.0,5.3,30.38,SSW,206,0.0,0.0,65,0.00,,,0.02,Wunderground v.1.15,2013-02-11 01:59:00,
2013-02-10 21:01:00,15.1,5.1,30.38,SSW,206,0.0,0.0,64,0.00,,,0.02,Wunderground v.1.15,2013-02-11 02:01:00,
2013-02-10 21:03:00,15.2,5.2,30.37,SSW,206,0.0,0.0,64,0.00,,,0.02,Wunderground v.1.15,2013-02-11 02:03:00,
2013-02-10 21:04:00,15.2,5.2,30.37,SSW,206,0.0,0.0,64,0.00,,,0.02,Wunderground v.1.15,2013-02-11 02:04:00,
2013-02-10 21:05:00,15.3,4.9,30.37,SSW,206,0.0,0.0,63,0.00,,,0.02,Wunderground v.1.15,2013-02-11 02:05:00,
2013-02-10 21:07:00,15.4,4.7,30.37,SSW,206,0.0,0.0,62,0.00,,,0.02,Wunderground v.1.15,2013-02-11 02:07:00,
2013-02-10 21:09:00,15.5,4.4,30.38,SSW,206,0.0,0.0,61,0.00,,,0.02,Wunderground v.1.15,2013-02-11 02:09:00,
2013-02-10 21:10:00,15.5,4.4,30.38,SSW,206,0.0,0.0,61,0.00,,,0.02,Wunderground v.1.15,2013-02-11 02:10:00,
2013-02-10 21:12:00,15.7,4.6,30.38,SSW,206,0.0,0.0,61,0.00,,,0.02,Wunderground v.1.15,2013-02-11 02:12:00,
2013-02-10 21:14:00,15.8,4.4,30.38,SSW,206,0.0,0.0,60,0.00,,,0.02,Wunderground v.1.15,2013-02-11 02:14:00,
2013-02-10 21:15:00,15.9,4.1,30.37,SSW,206,0.0,0.0,59,0.00,,,0.02,Wunderground v.1.15,2013-02-11 02:15:00,
2013-02-10 21:16:00,16.0,4.2,30.38,SSW,206,0.0,0.0,59,0.00,,,0.02,Wunderground v.1.15,2013-02-11 02:16:00,
2013-02-10 21:19:00,16.2,4.4,30.38,SSW,206,0.0,0.0,59,0.00,,,0.02,Wunderground v.1.15,2013-02-11 02:19:00,
2013-02-10 21:20:00,16.2,4.0,30.37,SSW,206,0.0,0.0,58,0.00,,,0.02,Wunderground v.1.15,2013-02-11 02:20:00,
2013-02-10 21:22:00,16.2,4.0,30.37,SSW,206,0.0,0.0,58,0.00,,,0.02,Wunderground v.1.15,2013-02-11 02:22:00,
2013-02-10 21:25:00,16.4,3.4,30.37,SSW,206,0.0,0.0,56,0.00,,,0.02,Wunderground v.1.15,2013-02-11 02:25:00,
2013-02-10 21:27:00,16.6,3.2,30.37,SSW,206,0.0,0.0,55,0.00,,,0.02,Wunderground v.1.15,2013-02-11 02:27:00,
2013-02-10 21:28:00,16.7,3.3,30.37,SSW,206,0.0,0.0,55,0.00,,,0.02,Wunderground v.1.15,2013-02-11 02:28:00,
2013-02-10 21:31:00,16.8,3.0,30.36,SSW,206,0.0,0.0,54,0.00,,,0.02,Wunderground v.1.15,2013-02-11 02:31:00,
2013-02-10 21:33:00,17.0,2.4,30.36,SSW,206,0.0,0.0,52,0.00,,,0.02,Wunderground v.1.15,2013-02-11 02:33:00,
2013-02-10 21:35:00,17.6,2.1,30.36,SE,136,0.0,1.0,50,0.00,,,0.02,Wunderground v.1.15,2013-02-11 02:35:00,
2013-02-10 21:37:00,18.4,2.0,30.36,SE,131,1.0,1.0,48,0.00,,,0.02,Wunderground v.1.15,2013-02-11 02:37:00,
2013-02-10 21:39:00,19.1,1.2,30.36,ESE,120,0.0,1.0,45,0.00,,,0.02,Wunderground v.1.15,2013-02-11 02:39:00,
2013-02-10 21:40:00,19.4,1.5,30.36,SE,125,1.0,2.0,45,0.00,,,0.02,Wunderground v.1.15,2013-02-11 02:40:00,
2013-02-10 21:41:00,19.9,0.5,30.36,ESE,102,0.0,2.0,42,0.00,,,0.02,Wunderground v.1.15,2013-02-11 02:41:00,
2013-02-10 21:43:00,20.4,0.9,30.36,ESE,110,0.0,1.0,42,0.00,,,0.02,Wunderground v.1.15,2013-02-11 02:43:00,
2013-02-10 21:44:00,20.8,0.8,30.35,ESE,110,0.0,1.0,41,0.00,,,0.02,Wunderground v.1.15,2013-02-11 02:44:00,
2013-02-10 21:46:00,21.1,1.6,30.35,ESE,110,0.0,1.0,42,0.00,,,0.02,Wunderground v.1.15,2013-02-11 02:46:00,
2013-02-10 21:47:00,21.2,1.1,30.35,ESE,110,0.0,1.0,41,0.00,,,0.02,Wunderground v.1.15,2013-02-11 02:47:00,
2013-02-10 21:48:00,21.4,-0.3,30.35,ESE,115,0.0,1.0,38,0.00,,,0.02,Wunderground v.1.15,2013-02-11 02:48:00,
2013-02-10 21:50:00,22.0,-1.5,30.35,ESE,115,0.0,1.0,35,0.00,,,0.02,Wunderground v.1.15,2013-02-11 02:50:00,
2013-02-10 21:51:00,22.2,-0.7,30.35,ESE,115,0.0,1.0,36,0.00,,,0.02,Wunderground v.1.15,2013-02-11 02:51:00,
2013-02-10 21:53:00,22.4,-1.2,30.35,ESE,115,0.0,0.0,35,0.00,,,0.02,Wunderground v.1.15,2013-02-11 02:53:00,
2013-02-10 21:56:00,22.9,-1.3,30.35,ESE,115,0.0,0.0,34,0.00,,,0.02,Wunderground v.1.15,2013-02-11 02:56:00,
2013-02-10 21:57:00,22.9,-2.0,30.35,SE,134,1.0,1.0,33,0.00,,,0.02,Wunderground v.1.15,2013-02-11 02:57:00,
2013-02-10 21:58:00,23.1,-2.4,30.35,ENE,77,1.0,1.0,32,0.00,,,0.02,Wunderground v.1.15,2013-02-11 02:58:00,
2013-02-10 21:59:00,23.3,-2.9,30.35,ENE,77,1.0,1.0,31,0.00,,,0.02,Wunderground v.1.15,2013-02-11 02:59:00,
2013-02-10 22:02:00,24.0,-3.0,30.35,ESE,108,0.0,1.0,30,0.00,,,0.02,Wunderground v.1.15,2013-02-11 03:02:00,
2013-02-10 22:04:00,24.4,-2.7,30.34,ESE,108,0.0,1.0,30,0.00,,,0.02,Wunderground v.1.15,2013-02-11 03:04:00,
2013-02-10 22:05:00,24.5,-3.3,30.34,ESE,110,0.0,1.0,29,0.00,,,0.02,Wunderground v.1.15,2013-02-11 03:05:00,
2013-02-10 22:06:00,24.5,-3.3,30.34,ESE,110,0.0,1.0,29,0.00,,,0.02,Wunderground v.1.15,2013-02-11 03:06:00,
2013-02-10 22:07:00,24.7,-3.8,30.34,East,101,2.0,2.0,28,0.00,,,0.02,Wunderground v.1.15,2013-02-11 03:07:00,
2013-02-10 22:10:00,25.0,-2.1,30.34,SE,130,0.0,3.0,30,0.00,,,0.02,Wunderground v.1.15,2013-02-11 03:10:00,
2013-02-10 22:11:00,25.0,-3.6,30.34,SE,130,0.0,0.0,28,0.00,,,0.02,Wunderground v.1.15,2013-02-11 03:11:00,
2013-02-10 22:13:00,25.1,-2.8,30.34,SE,129,0.0,1.0,29,0.00,,,0.02,Wunderground v.1.15,2013-02-11 03:13:00,
2013-02-10 22:15:00,24.9,-0.8,30.34,SE,129,0.0,1.0,32,0.00,,,0.02,Wunderground v.1.15,2013-02-11 03:15:00,
2013-02-10 22:17:00,24.6,-1.1,30.34,SE,129,0.0,1.0,32,0.00,,,0.02,Wunderground v.1.15,2013-02-11 03:17:00,
2013-02-10 22:18:00,24.5,-1.2,30.34,SE,129,0.0,1.0,32,0.00,,,0.02,Wunderground v.1.15,2013-02-11 03:18:00,
2013-02-10 22:22:00,23.9,-0.4,30.34,SE,129,0.0,0.0,34,0.00,,,0.02,Wunderground v.1.15,2013-02-11 03:22:00,
2013-02-10 22:23:00,23.8,0.1,30.34,SE,129,0.0,0.0,35,0.00,,,0.02,Wunderground v.1.15,2013-02-11 03:23:00,
2013-02-10 22:24:00,23.4,-0.3,30.34,SE,129,0.0,0.0,35,0.00,,,0.02,Wunderground v.1.15,2013-02-11 03:24:00,
2013-02-10 22:29:00,22.8,-0.2,30.34,SE,129,0.0,1.0,36,0.00,,,0.02,Wunderground v.1.15,2013-02-11 03:29:00,
2013-02-10 22:31:00,22.6,0.2,30.34,SE,129,0.0,1.0,37,0.00,,,0.02,Wunderground v.1.15,2013-02-11 03:31:00,
2013-02-10 22:35:00,22.5,-0.5,30.34,ESE,116,0.0,3.0,36,0.00,,,0.02,Wunderground v.1.15,2013-02-11 03:35:00,
2013-02-10 22:36:00,22.6,-0.4,30.34,ESE,116,0.0,3.0,36,0.00,,,0.02,Wunderground v.1.15,2013-02-11 03:36:00,
2013-02-10 22:37:00,22.6,-0.4,30.34,East,98,2.0,3.0,36,0.00,,,0.02,Wunderground v.1.15,2013-02-11 03:37:00,
2013-02-10 22:41:00,23.0,0.6,30.34,SSW,212,2.0,3.0,37,0.00,,,0.02,Wunderground v.1.15,2013-02-11 03:41:00,
2013-02-10 22:42:00,23.1,-0.5,30.34,ESE,106,0.0,1.0,35,0.00,,,0.02,Wunderground v.1.15,2013-02-11 03:42:00,
2013-02-10 22:46:00,23.8,-0.5,30.33,SW,221,1.0,3.0,34,0.00,,,0.02,Wunderground v.1.15,2013-02-11 03:46:00,
2013-02-10 22:47:00,23.9,-0.4,30.34,SW,221,0.0,3.0,34,0.00,,,0.02,Wunderground v.1.15,2013-02-11 03:47:00,
2013-02-10 22:48:00,23.9,-0.4,30.33,SW,221,0.0,3.0,34,0.00,,,0.02,Wunderground v.1.15,2013-02-11 03:48:00,
2013-02-10 22:49:00,24.0,-0.4,30.34,ESE,111,0.0,3.0,34,0.00,,,0.02,Wunderground v.1.15,2013-02-11 03:49:00,
2013-02-10 22:52:00,24.3,-1.4,30.34,NE,53,0.0,1.0,32,0.00,,,0.02,Wunderground v.1.15,2013-02-11 03:52:00,
2013-02-10 22:53:00,24.4,-0.6,30.34,NE,55,0.0,1.0,33,0.00,,,0.02,Wunderground v.1.15,2013-02-11 03:53:00,
2013-02-10 22:55:00,24.4,0.0,30.34,ENE,59,1.0,2.0,34,0.00,,,0.02,Wunderground v.1.15,2013-02-11 03:55:00,
2013-02-10 22:57:00,24.4,0.0,30.33,ESE,123,0.0,2.0,34,0.00,,,0.02,Wunderground v.1.15,2013-02-11 03:57:00,
2013-02-10 22:58:00,24.5,-0.5,30.33,SSE,154,0.0,2.0,33,0.00,,,0.02,Wunderground v.1.15,2013-02-11 03:58:00,
2013-02-10 22:59:00,24.6,-0.5,30.33,SSE,149,1.0,3.0,33,0.00,,,0.02,Wunderground v.1.15,2013-02-11 03:59:00,
2013-02-10 23:01:00,24.7,0.3,30.33,SE,130,0.0,3.0,34,0.00,,,0.02,Wunderground v.1.15,2013-02-11 04:01:00,
2013-02-10 23:03:00,25.1,-0.7,30.33,SSE,152,1.0,5.0,32,0.00,,,0.02,Wunderground v.1.15,2013-02-11 04:03:00,
2013-02-10 23:05:00,25.4,-0.4,30.33,South,175,0.0,5.0,32,0.00,,,0.02,Wunderground v.1.15,2013-02-11 04:05:00,
2013-02-10 23:06:00,25.4,0.2,30.33,SE,134,3.0,5.0,33,0.00,,,0.02,Wunderground v.1.15,2013-02-11 04:06:00,
2013-02-10 23:10:00,25.9,0.0,30.32,ESE,113,0.0,5.0,32,0.00,,,0.02,Wunderground v.1.15,2013-02-11 04:10:00,
2013-02-10 23:11:00,26.0,0.1,30.32,ESE,118,0.0,5.0,32,0.00,,,0.02,Wunderground v.1.15,2013-02-11 04:11:00,
2013-02-10 23:15:00,26.2,-0.4,30.32,SSE,148,0.0,1.0,31,0.00,,,0.02,Wunderground v.1.15,2013-02-11 04:15:00,
2013-02-10 23:16:00,26.3,0.4,30.32,South,176,3.0,3.0,32,0.00,,,0.02,Wunderground v.1.15,2013-02-11 04:16:00,
2013-02-10 23:21:00,26.6,0.0,30.32,ESE,109,1.0,3.0,31,0.00,,,0.02,Wunderground v.1.15,2013-02-11 04:21:00,
2013-02-10 23:22:00,26.6,0.0,30.31,ESE,109,1.0,1.0,31,0.00,,,0.02,Wunderground v.1.15,2013-02-11 04:22:00,
2013-02-10 23:26:00,26.9,-1.2,30.31,SW,232,1.0,2.0,29,0.00,,,0.02,Wunderground v.1.15,2013-02-11 04:26:00,
2013-02-10 23:27:00,27.0,-1.1,30.31,NW,323,3.0,4.0,29,0.00,,,0.02,Wunderground v.1.15,2013-02-11 04:27:00,
2013-02-10 23:28:00,27.1,-0.3,30.31,ESE,115,0.0,4.0,30,0.00,,,0.02,Wunderground v.1.15,2013-02-11 04:28:00,
2013-02-10 23:31:00,27.4,-0.7,30.31,ENE,72,0.0,1.0,29,0.00,,,0.02,Wunderground v.1.15,2013-02-11 04:31:00,
2013-02-10 23:32:00,27.4,-0.7,30.31,ENE,72,0.0,1.0,29,0.00,,,0.02,Wunderground v.1.15,2013-02-11 04:32:00,
2013-02-10 23:33:00,27.4,-0.7,30.31,East,97,0.0,1.0,29,0.00,,,0.02,Wunderground v.1.15,2013-02-11 04:33:00,
2013-02-10 23:35:00,27.5,0.1,30.31,East,97,0.0,1.0,30,0.00,,,0.02,Wunderground v.1.15,2013-02-11 04:35:00,
2013-02-10 23:37:00,27.6,0.2,30.31,East,98,1.0,3.0,30,0.00,,,0.02,Wunderground v.1.15,2013-02-11 04:37:00,
2013-02-10 23:38:00,27.6,0.2,30.31,East,98,0.0,3.0,30,0.00,,,0.02,Wunderground v.1.15,2013-02-11 04:38:00,
2013-02-10 23:41:00,27.7,0.9,30.30,SSE,155,1.0,5.0,31,0.00,,,0.02,Wunderground v.1.15,2013-02-11 04:41:00,
2013-02-10 23:44:00,27.8,0.3,30.30,ENE,61,1.0,3.0,30,0.00,,,0.02,Wunderground v.1.15,2013-02-11 04:44:00,
2013-02-10 23:45:00,27.8,0.3,30.30,East,96,5.0,5.0,30,0.00,,,0.02,Wunderground v.1.15,2013-02-11 04:45:00,
2013-02-10 23:47:00,28.0,1.2,30.30,ESE,113,2.0,5.0,31,0.00,,,0.02,Wunderground v.1.15,2013-02-11 04:47:00,
2013-02-10 23:51:00,28.2,2.1,30.30,ESE,120,0.0,5.0,32,0.00,,,0.02,Wunderground v.1.15,2013-02-11 04:51:00,
2013-02-10 23:52:00,28.2,2.7,30.31,SE,144,1.0,1.0,33,0.00,,,0.02,Wunderground v.1.15,2013-02-11 04:52:00,
2013-02-10 23:56:00,28.4,2.9,30.30,SSE,155,3.0,3.0,33,0.00,,,0.02,Wunderground v.1.15,2013-02-11 04:56:00,
2013-02-10 23:57:00,28.4,2.9,30.30,SSE,149,0.0,3.0,33,0.00,,,0.02,Wunderground v.1.15,2013-02-11 04:57:00,
2013-02-10 23:58:00,28.4,3.6,30.30,ESE,107,0.0,3.0,34,0.00,,,0.02,Wunderground v.1.15,2013-02-11 04:58:00,
2013-02-10 23:59:00,28.5,3.6,30.30,East,101,2.0,3.0,34,0.00,,,0.02,Wunderground v.1.15,2013-02-11 04:59:00,